Wetterdaten: aktuell Dienstag, 28.06.2022 10:39
Datum Zeit Temp. A. Feuchte A. Luftdruck Regen Wind Richtung Richtung Sonnenschein ET UV Solar Taupunkt Windchill Windben Empfang
28.06.2022 10:39 15,6 C 97 % 1019,9 hPa 0,0 l/m 3,2 km/h (1 Bft) O-NO 67 0 min 0,000 mm 0,6 UV-I 76 W/m 15,1 C 15,6 C 4,8 km/h (1 Bft) 100,00 %
28.06.2022 10:38 15,6 C 97 % 1019,8 hPa 0,0 l/m 3,2 km/h (1 Bft) O 90 0 min 0,000 mm 0,6 UV-I 72 W/m 15,1 C 15,6 C 4,8 km/h (1 Bft) 100,00 %
28.06.2022 10:37 15,6 C 96 % 1019,9 hPa 0,0 l/m 3,2 km/h (1 Bft) O-NO 67 0 min 0,000 mm 0,7 UV-I 77 W/m 15,0 C 15,6 C 4,8 km/h (1 Bft) 100,00 %
28.06.2022 10:36 15,5 C 96 % 1019,9 hPa 0,0 l/m 4,8 km/h (1 Bft) O-NO 67 0 min 0,000 mm 0,7 UV-I 84 W/m 14,9 C 15,5 C 6,4 km/h (2 Bft) 100,00 %
28.06.2022 10:35 15,6 C 96 % 1019,8 hPa 0,0 l/m 8,0 km/h (2 Bft) O-NO 67 0 min 0,000 mm 0,8 UV-I 88 W/m 15,0 C 15,6 C 14,5 km/h (3 Bft) 100,00 %
28.06.2022 10:34 15,6 C 97 % 1019,8 hPa 0,0 l/m 4,8 km/h (1 Bft) O 90 0 min 0,000 mm 0,8 UV-I 100 W/m 15,1 C 15,6 C 9,7 km/h (2 Bft) 91,30 %
28.06.2022 10:33 15,7 C 97 % 1019,9 hPa 0,0 l/m 1,6 km/h (1 Bft) O-NO 67 0 min 0,000 mm 0,8 UV-I 104 W/m 15,2 C 15,7 C 4,8 km/h (1 Bft) 100,00 %
28.06.2022 10:32 15,6 C 97 % 1019,9 hPa 0,0 l/m 3,2 km/h (1 Bft) O-NO 67 0 min 0,000 mm 0,8 UV-I 104 W/m 15,1 C 15,6 C 6,4 km/h (2 Bft) 100,00 %
28.06.2022 10:31 15,6 C 97 % 1019,9 hPa 0,0 l/m 4,8 km/h (1 Bft) O-NO 67 0 min 0,000 mm 0,8 UV-I 97 W/m 15,1 C 15,6 C 6,4 km/h (2 Bft) 100,00 %
28.06.2022 10:30 15,6 C 97 % 1019,8 hPa 0,0 l/m 4,8 km/h (1 Bft) O-NO 67 0 min 0,000 mm 0,8 UV-I 97 W/m 15,1 C 15,6 C 8,0 km/h (2 Bft) 100,00 %
28.06.2022 10:29 15,6 C 97 % 1019,9 hPa 0,0 l/m 3,2 km/h (1 Bft) O-NO 67 0 min 0,000 mm 0,7 UV-I 95 W/m 15,1 C 15,6 C 6,4 km/h (2 Bft) 95,65 %
28.06.2022 10:28 15,6 C 97 % 1019,9 hPa 0,0 l/m 3,2 km/h (1 Bft) O-NO 67 0 min 0,000 mm 0,7 UV-I 93 W/m 15,1 C 15,6 C 4,8 km/h (1 Bft) 100,00 %
28.06.2022 10:27 15,7 C 97 % 1019,8 hPa 0,0 l/m 3,2 km/h (1 Bft) O-NO 67 0 min 0,000 mm 0,7 UV-I 97 W/m 15,2 C 15,7 C 6,4 km/h (2 Bft) 95,65 %
28.06.2022 10:26 15,6 C 97 % 1019,9 hPa 0,0 l/m 3,2 km/h (1 Bft) O-NO 67 0 min 0,000 mm 0,8 UV-I 97 W/m 15,1 C 15,6 C 4,8 km/h (1 Bft) 100,00 %
28.06.2022 10:25 15,6 C 97 % 1019,9 hPa 0,0 l/m 3,2 km/h (1 Bft) O-NO 67 0 min 0,000 mm 0,7 UV-I 95 W/m 15,1 C 15,6 C 4,8 km/h (1 Bft) 100,00 %
28.06.2022 10:24 15,6 C 97 % 1019,9 hPa 0,0 l/m 3,2 km/h (1 Bft) O-NO 67 0 min 0,000 mm 0,8 UV-I 97 W/m 15,1 C 15,6 C 4,8 km/h (1 Bft) 95,65 %
28.06.2022 10:23 15,6 C 97 % 1019,9 hPa 0,0 l/m 3,2 km/h (1 Bft) O-NO 67 0 min 0,000 mm 0,9 UV-I 102 W/m 15,1 C 15,6 C 4,8 km/h (1 Bft) 56,52 %
28.06.2022 10:22 15,5 C 97 % 1019,9 hPa 0,0 l/m 3,2 km/h (1 Bft) O-NO 67 0 min 0,000 mm 0,9 UV-I 109 W/m 15,0 C 15,5 C 4,8 km/h (1 Bft) 91,30 %
28.06.2022 10:20 15,5 C 97 % 1019,9 hPa 0,0 l/m 3,2 km/h (1 Bft) O-NO 67 0 min 0,000 mm 0,8 UV-I 104 W/m 15,0 C 15,5 C 4,8 km/h (1 Bft) 100,00 %
28.06.2022 10:19 15,6 C 97 % 1019,9 hPa 0,0 l/m 3,2 km/h (1 Bft) O-NO 67 0 min 0,000 mm 0,8 UV-I 102 W/m 15,1 C 15,6 C 4,8 km/h (1 Bft) 95,65 %
28.06.2022 10:18 15,6 C 97 % 1019,8 hPa 0,0 l/m 3,2 km/h (1 Bft) N-NO 22 0 min 0,000 mm 1,0 UV-I 111 W/m 15,1 C 15,6 C 3,2 km/h (1 Bft) 100,00 %
28.06.2022 10:17 15,6 C 97 % 1019,8 hPa 0,0 l/m 3,2 km/h (1 Bft) N-NO 22 0 min 0,000 mm 1,1 UV-I 137 W/m 15,1 C 15,6 C 4,8 km/h (1 Bft) 100,00 %
28.06.2022 10:16 15,6 C 97 % 1019,8 hPa 0,0 l/m 3,2 km/h (1 Bft) NO 45 0 min 0,000 mm 1,2 UV-I 148 W/m 15,1 C 15,6 C 3,2 km/h (1 Bft) 100,00 %
28.06.2022 10:15 15,6 C 97 % 1019,8 hPa 0,0 l/m 3,2 km/h (1 Bft) NO 45 0 min 0,000 mm 1,2 UV-I 148 W/m 15,1 C 15,6 C 3,2 km/h (1 Bft) 100,00 %
28.06.2022 10:14 15,6 C 97 % 1019,7 hPa 0,0 l/m 3,2 km/h (1 Bft) NO 45 0 min 0,000 mm 1,2 UV-I 144 W/m 15,1 C 15,6 C 4,8 km/h (1 Bft) 95,65 %
28.06.2022 10:13 15,6 C 97 % 1019,8 hPa 0,0 l/m 3,2 km/h (1 Bft) NO 45 0 min 0,000 mm 1,2 UV-I 148 W/m 15,1 C 15,6 C 4,8 km/h (1 Bft) 100,00 %
28.06.2022 10:12 15,6 C 97 % 1019,7 hPa 0,0 l/m 3,2 km/h (1 Bft) O-NO 67 0 min 0,000 mm 1,3 UV-I 148 W/m 15,1 C 15,6 C 4,8 km/h (1 Bft) 100,00 %
28.06.2022 10:11 15,6 C 97 % 1019,7 hPa 0,0 l/m 4,8 km/h (1 Bft) O-NO 67 1 min 0,000 mm 1,3 UV-I 179 W/m 15,1 C 15,6 C 6,4 km/h (2 Bft) 100,00 %
28.06.2022 10:10 15,6 C 97 % 1019,7 hPa 0,0 l/m 4,8 km/h (1 Bft) O-NO 67 1 min 0,000 mm 1,5 UV-I 207 W/m 15,1 C 15,6 C 6,4 km/h (2 Bft) 100,00 %
28.06.2022 10:09 15,6 C 97 % 1019,6 hPa 0,0 l/m 4,8 km/h (1 Bft) O-NO 67 1 min 0,000 mm 1,4 UV-I 202 W/m 15,1 C 15,6 C 4,8 km/h (1 Bft) 100,00 %
28.06.2022 10:08 15,7 C 97 % 1019,6 hPa 0,0 l/m 4,8 km/h (1 Bft) NO 45 1 min 0,000 mm 1,4 UV-I 200 W/m 15,2 C 15,7 C 6,4 km/h (2 Bft) 100,00 %
28.06.2022 10:07 15,7 C 97 % 1019,5 hPa 0,0 l/m 3,2 km/h (1 Bft) NO 45 1 min 0,000 mm 1,3 UV-I 183 W/m 15,2 C 15,7 C 4,8 km/h (1 Bft) 100,00 %
28.06.2022 10:06 15,7 C 97 % 1019,6 hPa 0,0 l/m 4,8 km/h (1 Bft) O-NO 67 1 min 0,000 mm 1,3 UV-I 171 W/m 15,2 C 15,7 C 6,4 km/h (2 Bft) 100,00 %
28.06.2022 10:05 15,6 C 97 % 1019,5 hPa 0,0 l/m 4,8 km/h (1 Bft) O-NO 67 1 min 0,000 mm 1,2 UV-I 162 W/m 15,1 C 15,6 C 4,8 km/h (1 Bft) 100,00 %
28.06.2022 10:04 15,7 C 96 % 1019,5 hPa 0,0 l/m 3,2 km/h (1 Bft) NO 45 1 min 0,000 mm 1,2 UV-I 155 W/m 15,1 C 15,7 C 4,8 km/h (1 Bft) 100,00 %
28.06.2022 10:03 15,7 C 96 % 1019,6 hPa 0,0 l/m 4,8 km/h (1 Bft) O-NO 67 1 min 0,000 mm 1,2 UV-I 155 W/m 15,1 C 15,7 C 6,4 km/h (2 Bft) 100,00 %
28.06.2022 10:02 15,7 C 97 % 1019,6 hPa 0,0 l/m 3,2 km/h (1 Bft) O-NO 67 0 min 0,000 mm 1,1 UV-I 148 W/m 15,2 C 15,7 C 4,8 km/h (1 Bft) 100,00 %
28.06.2022 10:01 15,7 C 97 % 1019,6 hPa 0,0 l/m 3,2 km/h (1 Bft) O-NO 67 0 min 0,000 mm 1,1 UV-I 149 W/m 15,2 C 15,7 C 4,8 km/h (1 Bft) 100,00 %
28.06.2022 10:00 15,6 C 96 % 1019,6 hPa 0,0 l/m 4,8 km/h (1 Bft) O-NO 67 1 min 0,102 mm 1,5 UV-I 178 W/m 15,0 C 15,6 C 6,4 km/h (2 Bft) 100,00 %
28.06.2022 09:59 15,7 C 96 % 1019,6 hPa 0,0 l/m 3,2 km/h (1 Bft) NO 45 1 min 0,000 mm 1,7 UV-I 223 W/m 15,1 C 15,7 C 4,8 km/h (1 Bft) 100,00 %
28.06.2022 09:58 15,7 C 96 % 1019,6 hPa 0,0 l/m 4,8 km/h (1 Bft) O-NO 67 1 min 0,000 mm 1,7 UV-I 230 W/m 15,1 C 15,7 C 6,4 km/h (2 Bft) 100,00 %
28.06.2022 09:57 15,7 C 96 % 1019,6 hPa 0,0 l/m 4,8 km/h (1 Bft) O-NO 67 1 min 0,000 mm 1,6 UV-I 207 W/m 15,1 C 15,7 C 6,4 km/h (2 Bft) 95,65 %
28.06.2022 09:56 15,8 C 96 % 1019,6 hPa 0,0 l/m 4,8 km/h (1 Bft) O-NO 67 1 min 0,000 mm 1,5 UV-I 192 W/m 15,2 C 15,8 C 6,4 km/h (2 Bft) 100,00 %
28.06.2022 09:55 15,8 C 96 % 1019,6 hPa 0,0 l/m 3,2 km/h (1 Bft) NO 45 1 min 0,000 mm 1,5 UV-I 199 W/m 15,2 C 15,8 C 4,8 km/h (1 Bft) 100,00 %
28.06.2022 09:54 15,9 C 96 % 1019,7 hPa 0,0 l/m 4,8 km/h (1 Bft) O-NO 67 1 min 0,000 mm 1,5 UV-I 202 W/m 15,3 C 15,9 C 6,4 km/h (2 Bft) 100,00 %
28.06.2022 09:53 15,9 C 96 % 1019,6 hPa 0,0 l/m 4,8 km/h (1 Bft) O-NO 67 1 min 0,000 mm 1,5 UV-I 206 W/m 15,3 C 15,9 C 6,4 km/h (2 Bft) 100,00 %
28.06.2022 09:52 15,9 C 96 % 1019,6 hPa 0,0 l/m 4,8 km/h (1 Bft) O-NO 67 1 min 0,000 mm 1,4 UV-I 193 W/m 15,3 C 15,9 C 6,4 km/h (2 Bft) 100,00 %
28.06.2022 09:51 15,9 C 96 % 1019,6 hPa 0,0 l/m 4,8 km/h (1 Bft) O-NO 67 1 min 0,000 mm 1,3 UV-I 181 W/m 15,3 C 15,9 C 11,3 km/h (2 Bft) 100,00 %
28.06.2022 09:50 16,0 C 96 % 1019,7 hPa 0,0 l/m 0,0 km/h (0 Bft) O-NO 67 1 min 0,000 mm 1,2 UV-I 155 W/m 15,4 C 16,0 C 4,8 km/h (1 Bft) 100,00 %
28.06.2022 09:49 16,0 C 96 % 1019,6 hPa 0,0 l/m 0,0 km/h (0 Bft) N 0 1 min 0,000 mm 1,2 UV-I 163 W/m 15,4 C 16,0 C 0,0 km/h (0 Bft) 100,00 %
28.06.2022 09:48 15,9 C 96 % 1019,7 hPa 0,0 l/m 1,6 km/h (1 Bft) O-NO 67 0 min 0,000 mm 1,2 UV-I 151 W/m 15,3 C 15,9 C 3,2 km/h (1 Bft) 100,00 %
28.06.2022 09:47 16,0 C 96 % 1019,7 hPa 0,0 l/m 1,6 km/h (1 Bft) O-NO 67 1 min 0,000 mm 1,2 UV-I 188 W/m 15,4 C 16,0 C 3,2 km/h (1 Bft) 100,00 %
28.06.2022 09:46 16,0 C 96 % 1019,6 hPa 0,0 l/m 1,6 km/h (1 Bft) O-NO 67 1 min 0,000 mm 1,2 UV-I 171 W/m 15,4 C 16,0 C 4,8 km/h (1 Bft) 100,00 %
28.06.2022 09:45 16,0 C 96 % 1019,6 hPa 0,0 l/m 4,8 km/h (1 Bft) O-NO 67 0 min 0,000 mm 1,0 UV-I 146 W/m 15,4 C 16,0 C 4,8 km/h (1 Bft) 100,00 %
28.06.2022 09:44 16,1 C 97 % 1019,6 hPa 0,0 l/m 3,2 km/h (1 Bft) O-NO 67 0 min 0,000 mm 0,9 UV-I 132 W/m 15,6 C 16,1 C 6,4 km/h (2 Bft) 100,00 %
28.06.2022 09:43 16,0 C 97 % 1019,6 hPa 0,0 l/m 1,6 km/h (1 Bft) O-NO 67 0 min 0,000 mm 1,0 UV-I 148 W/m 15,5 C 16,0 C 3,2 km/h (1 Bft) 100,00 %
28.06.2022 09:42 15,9 C 97 % 1019,6 hPa 0,0 l/m 3,2 km/h (1 Bft) O-NO 67 1 min 0,000 mm 1,1 UV-I 185 W/m 15,4 C 15,9 C 6,4 km/h (2 Bft) 100,00 %
28.06.2022 09:41 15,9 C 97 % 1019,6 hPa 0,0 l/m 3,2 km/h (1 Bft) NO 45 1 min 0,000 mm 1,1 UV-I 200 W/m 15,4 C 15,9 C 4,8 km/h (1 Bft) 95,65 %
28.06.2022 09:40 15,9 C 96 % 1019,6 hPa 0,0 l/m 1,6 km/h (1 Bft) NO 45 1 min 0,000 mm 1,1 UV-I 200 W/m 15,3 C 15,9 C 3,2 km/h (1 Bft) 91,30 %
28.06.2022 09:39 15,8 C 97 % 1019,6 hPa 0,0 l/m 3,2 km/h (1 Bft) O-NO 67 1 min 0,000 mm 1,1 UV-I 199 W/m 15,3 C 15,8 C 4,8 km/h (1 Bft) 100,00 %
28.06.2022 09:38 15,8 C 96 % 1019,6 hPa 0,0 l/m 3,2 km/h (1 Bft) NO 45 1 min 0,000 mm 1,3 UV-I 225 W/m 15,2 C 15,8 C 4,8 km/h (1 Bft) 95,65 %
28.06.2022 09:37 15,8 C 96 % 1019,5 hPa 0,0 l/m 1,6 km/h (1 Bft) NO 45 1 min 0,000 mm 1,2 UV-I 188 W/m 15,2 C 15,8 C 3,2 km/h (1 Bft) 100,00 %
28.06.2022 09:36 15,8 C 96 % 1019,6 hPa 0,0 l/m 1,6 km/h (1 Bft) NO 45 1 min 0,000 mm 1,0 UV-I 174 W/m 15,2 C 15,8 C 3,2 km/h (1 Bft) 95,65 %
28.06.2022 09:35 15,7 C 96 % 1019,6 hPa 0,0 l/m 1,6 km/h (1 Bft) NO 45 0 min 0,000 mm 0,9 UV-I 109 W/m 15,1 C 15,7 C 3,2 km/h (1 Bft) 100,00 %
28.06.2022 09:34 15,8 C 96 % 1019,5 hPa 0,0 l/m 1,6 km/h (1 Bft) NO 45 0 min 0,000 mm 0,9 UV-I 109 W/m 15,2 C 15,8 C 3,2 km/h (1 Bft) 95,65 %
28.06.2022 09:33 15,8 C 95 % 1019,5 hPa 0,0 l/m 6,4 km/h (2 Bft) NO 45 0 min 0,000 mm 1,1 UV-I 144 W/m 15,0 C 15,8 C 9,7 km/h (2 Bft) 100,00 %
28.06.2022 09:32 15,9 C 96 % 1019,5 hPa 0,0 l/m 4,8 km/h (1 Bft) NO 45 1 min 0,000 mm 1,2 UV-I 163 W/m 15,3 C 15,9 C 8,0 km/h (2 Bft) 100,00 %
28.06.2022 09:31 15,9 C 96 % 1019,5 hPa 0,0 l/m 3,2 km/h (1 Bft) O 90 0 min 0,000 mm 1,1 UV-I 139 W/m 15,3 C 15,9 C 4,8 km/h (1 Bft) 95,65 %
28.06.2022 09:30 15,9 C 96 % 1019,6 hPa 0,0 l/m 4,8 km/h (1 Bft) O 90 0 min 0,000 mm 1,2 UV-I 148 W/m 15,3 C 15,9 C 6,4 km/h (2 Bft) 100,00 %
28.06.2022 09:29 15,8 C 96 % 1019,6 hPa 0,0 l/m 3,2 km/h (1 Bft) O-NO 67 0 min 0,000 mm 1,2 UV-I 142 W/m 15,2 C 15,8 C 4,8 km/h (1 Bft) 100,00 %
28.06.2022 09:28 15,8 C 95 % 1019,5 hPa 0,0 l/m 4,8 km/h (1 Bft) O 90 1 min 0,000 mm 1,3 UV-I 156 W/m 15,0 C 15,8 C 6,4 km/h (2 Bft) 100,00 %
28.06.2022 09:27 15,8 C 95 % 1019,7 hPa 0,0 l/m 4,8 km/h (1 Bft) O 90 1 min 0,000 mm 1,4 UV-I 167 W/m 15,0 C 15,8 C 9,7 km/h (2 Bft) 100,00 %
28.06.2022 09:26 15,8 C 96 % 1019,7 hPa 0,0 l/m 3,2 km/h (1 Bft) O 90 1 min 0,000 mm 1,3 UV-I 153 W/m 15,2 C 15,8 C 6,4 km/h (2 Bft) 100,00 %
28.06.2022 09:25 15,8 C 96 % 1019,6 hPa 0,0 l/m 3,2 km/h (1 Bft) O 90 0 min 0,000 mm 1,2 UV-I 149 W/m 15,2 C 15,8 C 6,4 km/h (2 Bft) 100,00 %
28.06.2022 09:24 15,8 C 96 % 1019,7 hPa 0,0 l/m 0,0 km/h (0 Bft) N 0 1 min 0,000 mm 1,2 UV-I 163 W/m 15,2 C 15,8 C 0,0 km/h (0 Bft) 100,00 %
28.06.2022 09:23 15,9 C 96 % 1019,6 hPa 0,0 l/m 0,0 km/h (0 Bft) N 0 1 min 0,000 mm 1,2 UV-I 158 W/m 15,3 C 15,9 C 0,0 km/h (0 Bft) 100,00 %
28.06.2022 09:22 15,9 C 96 % 1019,7 hPa 0,0 l/m 0,0 km/h (0 Bft) N 0 1 min 0,000 mm 1,2 UV-I 178 W/m 15,3 C 15,9 C 0,0 km/h (0 Bft) 100,00 %
28.06.2022 09:21 15,9 C 96 % 1019,7 hPa 0,0 l/m 0,0 km/h (0 Bft) N 0 1 min 0,000 mm 1,3 UV-I 211 W/m 15,3 C 15,9 C 0,0 km/h (0 Bft) 100,00 %
28.06.2022 09:20 15,8 C 96 % 1019,6 hPa 0,0 l/m 0,0 km/h (0 Bft) N 0 1 min 0,000 mm 1,4 UV-I 229 W/m 15,2 C 15,8 C 0,0 km/h (0 Bft) 100,00 %
28.06.2022 09:19 15,8 C 96 % 1019,7 hPa 0,0 l/m 0,0 km/h (0 Bft) N 0 1 min 0,000 mm 1,4 UV-I 234 W/m 15,2 C 15,8 C 0,0 km/h (0 Bft) 95,65 %
28.06.2022 09:18 15,8 C 95 % 1019,7 hPa 0,0 l/m 0,0 km/h (0 Bft) O-NO 67 1 min 0,000 mm 1,3 UV-I 230 W/m 15,0 C 15,8 C 1,6 km/h (1 Bft) 100,00 %
28.06.2022 09:17 15,9 C 96 % 1019,7 hPa 0,0 l/m 1,6 km/h (1 Bft) O-NO 67 1 min 0,000 mm 1,3 UV-I 207 W/m 15,3 C 15,9 C 4,8 km/h (1 Bft) 95,65 %
28.06.2022 09:16 16,0 C 96 % 1019,6 hPa 0,0 l/m 3,2 km/h (1 Bft) O-NO 67 1 min 0,000 mm 1,3 UV-I 207 W/m 15,4 C 16,0 C 4,8 km/h (1 Bft) 100,00 %
28.06.2022 09:15 15,9 C 96 % 1019,7 hPa 0,0 l/m 1,6 km/h (1 Bft) O-NO 67 1 min 0,000 mm 1,3 UV-I 209 W/m 15,3 C 15,9 C 6,4 km/h (2 Bft) 100,00 %
28.06.2022 09:14 15,9 C 96 % 1019,7 hPa 0,0 l/m 0,0 km/h (0 Bft) N 0 1 min 0,000 mm 1,3 UV-I 209 W/m 15,3 C 15,9 C 0,0 km/h (0 Bft) 100,00 %
28.06.2022 09:13 15,9 C 96 % 1019,8 hPa 0,0 l/m 0,0 km/h (0 Bft) N 0 1 min 0,000 mm 1,3 UV-I 204 W/m 15,3 C 15,9 C 0,0 km/h (0 Bft) 100,00 %
28.06.2022 09:12 15,9 C 97 % 1019,8 hPa 0,0 l/m 0,0 km/h (0 Bft) N 0 1 min 0,000 mm 1,3 UV-I 206 W/m 15,4 C 15,9 C 0,0 km/h (0 Bft) 100,00 %
28.06.2022 09:11 15,8 C 96 % 1019,7 hPa 0,0 l/m 0,0 km/h (0 Bft) N 0 1 min 0,000 mm 1,3 UV-I 213 W/m 15,2 C 15,8 C 0,0 km/h (0 Bft) 100,00 %
28.06.2022 09:10 15,8 C 96 % 1019,7 hPa 0,0 l/m 0,0 km/h (0 Bft) N 0 1 min 0,000 mm 1,3 UV-I 209 W/m 15,2 C 15,8 C 0,0 km/h (0 Bft) 100,00 %
28.06.2022 09:09 15,9 C 96 % 1019,7 hPa 0,0 l/m 0,0 km/h (0 Bft) O-NO 67 1 min 0,000 mm 1,3 UV-I 190 W/m 15,3 C 15,9 C 1,6 km/h (1 Bft) 91,30 %
28.06.2022 09:08 15,9 C 96 % 1019,6 hPa 0,0 l/m 0,0 km/h (0 Bft) O-NO 67 1 min 0,000 mm 1,1 UV-I 172 W/m 15,3 C 15,9 C 1,6 km/h (1 Bft) 95,65 %
28.06.2022 09:07 15,9 C 96 % 1019,6 hPa 0,0 l/m 1,6 km/h (1 Bft) O-NO 67 1 min 0,000 mm 1,1 UV-I 172 W/m 15,3 C 15,9 C 3,2 km/h (1 Bft) 100,00 %
28.06.2022 09:06 16,0 C 97 % 1019,6 hPa 0,0 l/m 1,6 km/h (1 Bft) O 90 1 min 0,000 mm 1,1 UV-I 192 W/m 15,5 C 16,0 C 3,2 km/h (1 Bft) 100,00 %
28.06.2022 09:05 15,9 C 96 % 1019,6 hPa 0,0 l/m 0,0 km/h (0 Bft) O 90 1 min 0,000 mm 1,2 UV-I 213 W/m 15,3 C 15,9 C 1,6 km/h (1 Bft) 100,00 %
28.06.2022 09:04 15,9 C 97 % 1019,6 hPa 0,0 l/m 0,0 km/h (0 Bft) N 0 1 min 0,000 mm 1,3 UV-I 230 W/m 15,4 C 15,9 C 0,0 km/h (0 Bft) 100,00 %
28.06.2022 09:03 15,8 C 96 % 1019,7 hPa 0,0 l/m 1,6 km/h (1 Bft) O 90 1 min 0,000 mm 1,3 UV-I 237 W/m 15,2 C 15,8 C 4,8 km/h (1 Bft) 100,00 %
28.06.2022 09:02 15,8 C 96 % 1019,7 hPa 0,0 l/m 3,2 km/h (1 Bft) O 90 1 min 0,000 mm 1,4 UV-I 260 W/m 15,2 C 15,8 C 6,4 km/h (2 Bft) 91,30 %
28.06.2022 09:01 15,8 C 96 % 1019,7 hPa 0,0 l/m 0,0 km/h (0 Bft) N-NO 22 1 min 0,000 mm 1,4 UV-I 260 W/m 15,2 C 15,8 C 3,2 km/h (1 Bft) 100,00 %
28.06.2022 09:00 15,8 C 96 % 1019,8 hPa 0,0 l/m 1,6 km/h (1 Bft) N 360 1 min 0,127 mm 1,4 UV-I 227 W/m 15,2 C 15,8 C 4,8 km/h (1 Bft) 100,00 %
28.06.2022 08:59 15,9 C 97 % 1019,7 hPa 0,0 l/m 0,0 km/h (0 Bft) N 0 1 min 0,000 mm 1,3 UV-I 202 W/m 15,4 C 15,9 C 0,0 km/h (0 Bft) 100,00 %
28.06.2022 08:58 15,9 C 96 % 1019,7 hPa 0,0 l/m 1,6 km/h (1 Bft) NO 45 1 min 0,000 mm 1,1 UV-I 186 W/m 15,3 C 15,9 C 3,2 km/h (1 Bft) 100,00 %
28.06.2022 08:57 15,9 C 97 % 1019,8 hPa 0,0 l/m 1,6 km/h (1 Bft) N-NW 337 1 min 0,000 mm 1,1 UV-I 195 W/m 15,4 C 15,9 C 1,6 km/h (1 Bft) 100,00 %
28.06.2022 08:56 15,8 C 96 % 1019,8 hPa 0,0 l/m 4,8 km/h (1 Bft) W-NW 292 1 min 0,000 mm 1,3 UV-I 220 W/m 15,2 C 15,8 C 6,4 km/h (2 Bft) 100,00 %
28.06.2022 08:55 15,8 C 96 % 1019,8 hPa 0,0 l/m 4,8 km/h (1 Bft) NW 315 1 min 0,000 mm 1,5 UV-I 316 W/m 15,2 C 15,8 C 6,4 km/h (2 Bft) 100,00 %
28.06.2022 08:54 15,8 C 97 % 1019,7 hPa 0,0 l/m 3,2 km/h (1 Bft) N 360 1 min 0,000 mm 1,7 UV-I 396 W/m 15,3 C 15,8 C 4,8 km/h (1 Bft) 100,00 %
28.06.2022 08:53 15,9 C 97 % 1019,7 hPa 0,0 l/m 0,0 km/h (0 Bft) N 0 1 min 0,000 mm 1,7 UV-I 353 W/m 15,4 C 15,9 C 0,0 km/h (0 Bft) 100,00 %
28.06.2022 08:52 15,8 C 97 % 1019,7 hPa 0,0 l/m 0,0 km/h (0 Bft) W 270 1 min 0,000 mm 1,5 UV-I 272 W/m 15,3 C 15,8 C 3,2 km/h (1 Bft) 100,00 %
28.06.2022 08:51 15,8 C 97 % 1019,7 hPa 0,0 l/m 1,6 km/h (1 Bft) W 270 1 min 0,000 mm 1,3 UV-I 213 W/m 15,3 C 15,8 C 3,2 km/h (1 Bft) 100,00 %
28.06.2022 08:50 15,9 C 97 % 1019,7 hPa 0,0 l/m 1,6 km/h (1 Bft) W-NW 292 1 min 0,000 mm 1,3 UV-I 211 W/m 15,4 C 15,9 C 3,2 km/h (1 Bft) 100,00 %
28.06.2022 08:49 15,9 C 98 % 1019,6 hPa 0,0 l/m 0,0 km/h (0 Bft) O-NO 67 1 min 0,000 mm 1,3 UV-I 236 W/m 15,6 C 15,9 C 3,2 km/h (1 Bft) 100,00 %
28.06.2022 08:48 15,9 C 97 % 1019,7 hPa 0,0 l/m 0,0 km/h (0 Bft) N 0 1 min 0,000 mm 1,3 UV-I 197 W/m 15,4 C 15,9 C 0,0 km/h (0 Bft) 100,00 %
28.06.2022 08:47 15,9 C 97 % 1019,6 hPa 0,0 l/m 3,2 km/h (1 Bft) W-SW 247 1 min 0,000 mm 1,3 UV-I 188 W/m 15,4 C 15,9 C 6,4 km/h (2 Bft) 100,00 %
28.06.2022 08:46 15,9 C 97 % 1019,6 hPa 0,0 l/m 1,6 km/h (1 Bft) N-NW 337 1 min 0,000 mm 1,1 UV-I 179 W/m 15,4 C 15,9 C 4,8 km/h (1 Bft) 100,00 %
28.06.2022 08:45 15,9 C 97 % 1019,7 hPa 0,0 l/m 1,6 km/h (1 Bft) N-NW 337 1 min 0,000 mm 1,1 UV-I 160 W/m 15,4 C 15,9 C 4,8 km/h (1 Bft) 95,65 %
28.06.2022 08:44 15,9 C 97 % 1019,6 hPa 0,0 l/m 0,0 km/h (0 Bft) NW 315 1 min 0,000 mm 1,1 UV-I 165 W/m 15,4 C 15,9 C 1,6 km/h (1 Bft) 100,00 %
28.06.2022 08:43 15,9 C 98 % 1019,6 hPa 0,0 l/m 0,0 km/h (0 Bft) N 360 1 min 0,000 mm 1,1 UV-I 218 W/m 15,6 C 15,9 C 1,6 km/h (1 Bft) 100,00 %
28.06.2022 08:42 15,9 C 97 % 1019,6 hPa 0,0 l/m 1,6 km/h (1 Bft) N 360 1 min 0,000 mm 1,3 UV-I 279 W/m 15,4 C 15,9 C 3,2 km/h (1 Bft) 100,00 %
28.06.2022 08:41 15,8 C 97 % 1019,6 hPa 0,0 l/m 1,6 km/h (1 Bft) W-NW 292 1 min 0,000 mm 1,5 UV-I 295 W/m 15,3 C 15,8 C 3,2 km/h (1 Bft) 100,00 %
28.06.2022 08:40 15,8 C 98 % 1019,6 hPa 0,0 l/m 1,6 km/h (1 Bft) N-NW 337 1 min 0,000 mm 1,5 UV-I 297 W/m 15,5 C 15,8 C 4,8 km/h (1 Bft) 95,65 %
28.06.2022 08:39 15,8 C 98 % 1019,6 hPa 0,0 l/m 1,6 km/h (1 Bft) NW 315 1 min 0,000 mm 1,5 UV-I 250 W/m 15,5 C 15,8 C 4,8 km/h (1 Bft) 100,00 %
28.06.2022 08:38 15,8 C 98 % 1019,5 hPa 0,0 l/m 1,6 km/h (1 Bft) NW 315 1 min 0,000 mm 1,3 UV-I 199 W/m 15,5 C 15,8 C 1,6 km/h (1 Bft) 100,00 %
28.06.2022 08:37 15,8 C 97 % 1019,5 hPa 0,0 l/m 0,0 km/h (0 Bft) N 0 1 min 0,000 mm 1,2 UV-I 185 W/m 15,3 C 15,8 C 0,0 km/h (0 Bft) 100,00 %
28.06.2022 08:36 15,6 C 97 % 1019,5 hPa 0,0 l/m 1,6 km/h (1 Bft) NW 315 1 min 0,000 mm 1,3 UV-I 183 W/m 15,1 C 15,6 C 3,2 km/h (1 Bft) 100,00 %
28.06.2022 08:35 15,7 C 97 % 1019,4 hPa 0,0 l/m 3,2 km/h (1 Bft) W-NW 292 1 min 0,000 mm 1,3 UV-I 156 W/m 15,2 C 15,7 C 4,8 km/h (1 Bft) 100,00 %
28.06.2022 08:34 15,8 C 98 % 1019,4 hPa 0,0 l/m 6,4 km/h (2 Bft) NW 315 1 min 0,000 mm 1,3 UV-I 165 W/m 15,5 C 15,8 C 8,0 km/h (2 Bft) 100,00 %
28.06.2022 08:33 15,8 C 98 % 1019,5 hPa 0,0 l/m 6,4 km/h (2 Bft) NW 315 1 min 0,000 mm 1,3 UV-I 218 W/m 15,5 C 15,8 C 8,0 km/h (2 Bft) 100,00 %
28.06.2022 08:32 15,9 C 98 % 1019,6 hPa 0,0 l/m 1,6 km/h (1 Bft) S-SW 202 1 min 0,000 mm 1,4 UV-I 213 W/m 15,6 C 15,9 C 4,8 km/h (1 Bft) 100,00 %
28.06.2022 08:31 16,1 C 98 % 1019,5 hPa 0,0 l/m 0,0 km/h (0 Bft) W-SW 247 1 min 0,000 mm 1,3 UV-I 200 W/m 15,8 C 16,1 C 1,6 km/h (1 Bft) 95,65 %
28.06.2022 08:30 15,9 C 98 % 1019,5 hPa 0,0 l/m 1,6 km/h (1 Bft) W-SW 247 1 min 0,000 mm 1,6 UV-I 239 W/m 15,6 C 15,9 C 3,2 km/h (1 Bft) 100,00 %
28.06.2022 08:29 15,8 C 98 % 1019,6 hPa 0,0 l/m 0,0 km/h (0 Bft) N 360 1 min 0,000 mm 1,4 UV-I 239 W/m 15,5 C 15,8 C 1,6 km/h (1 Bft) 95,65 %
28.06.2022 08:28 15,7 C 98 % 1019,6 hPa 0,0 l/m 1,6 km/h (1 Bft) W 270 1 min 0,000 mm 1,4 UV-I 199 W/m 15,4 C 15,7 C 3,2 km/h (1 Bft) 100,00 %
28.06.2022 08:27 15,8 C 98 % 1019,6 hPa 0,0 l/m 1,6 km/h (1 Bft) N-NW 337 1 min 0,000 mm 1,5 UV-I 297 W/m 15,5 C 15,8 C 3,2 km/h (1 Bft) 100,00 %
28.06.2022 08:26 15,6 C 98 % 1019,7 hPa 0,0 l/m 1,6 km/h (1 Bft) W-NW 292 1 min 0,000 mm 1,4 UV-I 297 W/m 15,3 C 15,6 C 4,8 km/h (1 Bft) 100,00 %
28.06.2022 08:25 15,6 C 98 % 1019,6 hPa 0,0 l/m 3,2 km/h (1 Bft) W 270 1 min 0,000 mm 1,9 UV-I 218 W/m 15,3 C 15,6 C 6,4 km/h (2 Bft) 100,00 %
28.06.2022 08:24 15,6 C 98 % 1019,7 hPa 0,0 l/m 4,8 km/h (1 Bft) W-NW 292 1 min 0,000 mm 1,3 UV-I 218 W/m 15,3 C 15,6 C 9,7 km/h (2 Bft) 95,65 %
28.06.2022 08:23 15,6 C 98 % 1019,7 hPa 0,0 l/m 4,8 km/h (1 Bft) W 270 1 min 0,000 mm 1,3 UV-I 197 W/m 15,3 C 15,6 C 9,7 km/h (2 Bft) 100,00 %
28.06.2022 08:22 15,7 C 98 % 1019,6 hPa 0,0 l/m 4,8 km/h (1 Bft) W-SW 247 0 min 0,000 mm 1,2 UV-I 151 W/m 15,4 C 15,7 C 6,4 km/h (2 Bft) 100,00 %
28.06.2022 08:21 15,7 C 98 % 1019,7 hPa 0,0 l/m 0,0 km/h (0 Bft) NW 315 0 min 0,000 mm 1,1 UV-I 113 W/m 15,4 C 15,7 C 3,2 km/h (1 Bft) 91,30 %
28.06.2022 08:20 15,7 C 98 % 1019,7 hPa 0,0 l/m 3,2 km/h (1 Bft) NW 315 0 min 0,000 mm 1,1 UV-I 120 W/m 15,4 C 15,7 C 4,8 km/h (1 Bft) 100,00 %
28.06.2022 08:19 15,7 C 98 % 1019,7 hPa 0,0 l/m 1,6 km/h (1 Bft) W 270 1 min 0,000 mm 1,0 UV-I 462 W/m 15,4 C 15,7 C 3,2 km/h (1 Bft) 95,65 %
28.06.2022 08:18 15,6 C 98 % 1019,7 hPa 0,0 l/m 4,8 km/h (1 Bft) W 270 1 min 0,000 mm 1,4 UV-I 462 W/m 15,3 C 15,6 C 6,4 km/h (2 Bft) 95,65 %
28.06.2022 08:17 15,4 C 98 % 1019,7 hPa 0,0 l/m 4,8 km/h (1 Bft) W 270 1 min 0,000 mm 1,6 UV-I 209 W/m 15,1 C 15,4 C 6,4 km/h (2 Bft) 100,00 %
28.06.2022 08:16 15,4 C 98 % 1019,7 hPa 0,0 l/m 4,8 km/h (1 Bft) W-NW 292 1 min 0,000 mm 1,3 UV-I 209 W/m 15,1 C 15,4 C 6,4 km/h (2 Bft) 100,00 %
28.06.2022 08:15 15,5 C 98 % 1019,7 hPa 0,0 l/m 6,4 km/h (2 Bft) N-NW 337 0 min 0,000 mm 1,1 UV-I 109 W/m 15,2 C 15,5 C 9,7 km/h (2 Bft) 95,65 %
28.06.2022 08:14 15,6 C 98 % 1019,7 hPa 0,0 l/m 8,0 km/h (2 Bft) NW 315 0 min 0,000 mm 0,9 UV-I 123 W/m 15,3 C 15,6 C 11,3 km/h (2 Bft) 100,00 %
28.06.2022 08:13 15,8 C 98 % 1019,7 hPa 0,0 l/m 4,8 km/h (1 Bft) W-NW 292 1 min 0,000 mm 0,9 UV-I 174 W/m 15,5 C 15,8 C 8,0 km/h (2 Bft) 100,00 %
28.06.2022 08:12 15,8 C 98 % 1019,7 hPa 0,0 l/m 3,2 km/h (1 Bft) W 270 1 min 0,000 mm 1,0 UV-I 255 W/m 15,5 C 15,8 C 6,4 km/h (2 Bft) 95,65 %
28.06.2022 08:11 15,7 C 98 % 1019,7 hPa 0,0 l/m 4,8 km/h (1 Bft) W 270 1 min 0,000 mm 1,1 UV-I 257 W/m 15,4 C 15,7 C 6,4 km/h (2 Bft) 91,30 %
28.06.2022 08:10 15,6 C 98 % 1019,7 hPa 0,0 l/m 3,2 km/h (1 Bft) W 270 1 min 0,000 mm 1,0 UV-I 171 W/m 15,3 C 15,6 C 4,8 km/h (1 Bft) 100,00 %
28.06.2022 08:09 15,5 C 98 % 1019,7 hPa 0,0 l/m 6,4 km/h (2 Bft) W 270 1 min 0,000 mm 1,0 UV-I 172 W/m 15,2 C 15,5 C 9,7 km/h (2 Bft) 86,96 %
28.06.2022 08:08 15,7 C 98 % 1019,7 hPa 0,0 l/m 6,4 km/h (2 Bft) W 270 1 min 0,000 mm 1,0 UV-I 214 W/m 15,4 C 15,7 C 11,3 km/h (2 Bft) 95,65 %
28.06.2022 08:07 15,6 C 98 % 1019,6 hPa 0,0 l/m 8,0 km/h (2 Bft) W-NW 292 1 min 0,000 mm 1,2 UV-I 290 W/m 15,3 C 15,6 C 11,3 km/h (2 Bft) 78,26 %
28.06.2022 08:06 15,5 C 98 % 1019,7 hPa 0,0 l/m 6,4 km/h (2 Bft) W-NW 292 1 min 0,000 mm 1,2 UV-I 290 W/m 15,2 C 15,5 C 11,3 km/h (2 Bft) 91,30 %
28.06.2022 08:05 15,4 C 98 % 1019,7 hPa 0,0 l/m 4,8 km/h (1 Bft) W 270 1 min 0,000 mm 1,1 UV-I 295 W/m 15,1 C 15,4 C 8,0 km/h (2 Bft) 95,65 %
28.06.2022 08:04 15,3 C 98 % 1019,8 hPa 0,0 l/m 4,8 km/h (1 Bft) W-NW 292 0 min 0,000 mm 1,3 UV-I 144 W/m 15,0 C 15,3 C 9,7 km/h (2 Bft) 91,30 %
28.06.2022 08:03 15,3 C 98 % 1019,7 hPa 0,0 l/m 4,8 km/h (1 Bft) W-NW 292 0 min 0,000 mm 1,0 UV-I 144 W/m 15,0 C 15,3 C 9,7 km/h (2 Bft) 100,00 %
28.06.2022 08:02 15,3 C 98 % 1019,7 hPa 0,0 l/m 4,8 km/h (1 Bft) W-NW 292 1 min 0,000 mm 0,8 UV-I 174 W/m 15,0 C 15,3 C 6,4 km/h (2 Bft) 100,00 %
28.06.2022 08:01 15,2 C 98 % 1019,7 hPa 0,0 l/m 4,8 km/h (1 Bft) W 270 0 min 0,000 mm 0,7 UV-I 107 W/m 14,9 C 15,2 C 6,4 km/h (2 Bft) 100,00 %
28.06.2022 08:00 15,2 C 98 % 1019,6 hPa 0,0 l/m 4,8 km/h (1 Bft) W-NW 292 0 min 0,076 mm 0,6 UV-I 102 W/m 14,9 C 15,2 C 6,4 km/h (2 Bft) 78,26 %
28.06.2022 07:59 15,2 C 98 % 1019,7 hPa 0,0 l/m 6,4 km/h (2 Bft) W-NW 292 0 min 0,000 mm 0,5 UV-I 102 W/m 14,9 C 15,2 C 8,0 km/h (2 Bft) 86,96 %
28.06.2022 07:58 15,2 C 98 % 1019,6 hPa 0,0 l/m 9,7 km/h (2 Bft) W-NW 292 0 min 0,000 mm 0,0 UV-I 98 W/m 14,9 C 15,2 C 12,9 km/h (3 Bft) 95,65 %
28.06.2022 07:57 15,2 C 98 % 1019,7 hPa 0,0 l/m 8,0 km/h (2 Bft) NW 315 0 min 0,000 mm 0,0 UV-I 105 W/m 14,9 C 15,2 C 12,9 km/h (3 Bft) 100,00 %
28.06.2022 07:56 15,2 C 98 % 1019,6 hPa 0,0 l/m 4,8 km/h (1 Bft) NW 315 0 min 0,000 mm 0,0 UV-I 109 W/m 14,9 C 15,2 C 8,0 km/h (2 Bft) 100,00 %
28.06.2022 07:55 15,2 C 98 % 1019,6 hPa 0,0 l/m 8,0 km/h (2 Bft) W-NW 292 0 min 0,000 mm 0,0 UV-I 90 W/m 14,9 C 15,2 C 8,0 km/h (2 Bft) 100,00 %
28.06.2022 07:54 15,2 C 98 % 1019,7 hPa 0,0 l/m 4,8 km/h (1 Bft) W-NW 292 0 min 0,000 mm 0,0 UV-I 76 W/m 14,9 C 15,2 C 9,7 km/h (2 Bft) 100,00 %
28.06.2022 07:53 15,2 C 98 % 1019,6 hPa 0,0 l/m 4,8 km/h (1 Bft) W 270 0 min 0,000 mm 0,0 UV-I 72 W/m 14,9 C 15,2 C 9,7 km/h (2 Bft) 100,00 %
28.06.2022 07:52 15,2 C 98 % 1019,6 hPa 0,0 l/m 4,8 km/h (1 Bft) W 270 0 min 0,000 mm 0,0 UV-I 74 W/m 14,9 C 15,2 C 6,4 km/h (2 Bft) 100,00 %
28.06.2022 07:51 15,2 C 98 % 1019,6 hPa 0,0 l/m 4,8 km/h (1 Bft) W-NW 292 0 min 0,000 mm 0,0 UV-I 83 W/m 14,9 C 15,2 C 6,4 km/h (2 Bft) 100,00 %
28.06.2022 07:50 15,3 C 98 % 1019,6 hPa 0,0 l/m 4,8 km/h (1 Bft) W-NW 292 0 min 0,000 mm 0,0 UV-I 113 W/m 15,0 C 15,3 C 6,4 km/h (2 Bft) 95,65 %
28.06.2022 07:49 15,2 C 98 % 1019,6 hPa 0,0 l/m 4,8 km/h (1 Bft) W 270 0 min 0,000 mm 0,0 UV-I 113 W/m 14,9 C 15,2 C 6,4 km/h (2 Bft) 100,00 %
28.06.2022 07:48 15,3 C 98 % 1019,6 hPa 0,0 l/m 3,2 km/h (1 Bft) W-SW 247 0 min 0,000 mm 0,0 UV-I 118 W/m 15,0 C 15,3 C 4,8 km/h (1 Bft) 100,00 %
28.06.2022 07:47 15,3 C 98 % 1019,6 hPa 0,0 l/m 4,8 km/h (1 Bft) W 270 0 min 0,000 mm 0,0 UV-I 121 W/m 15,0 C 15,3 C 6,4 km/h (2 Bft) 100,00 %
28.06.2022 07:46 15,3 C 98 % 1019,6 hPa 0,0 l/m 6,4 km/h (2 Bft) W 270 0 min 0,000 mm 0,0 UV-I 130 W/m 15,0 C 15,3 C 11,3 km/h (2 Bft) 100,00 %
28.06.2022 07:45 15,2 C 98 % 1019,6 hPa 0,0 l/m 8,0 km/h (2 Bft) W-NW 292 0 min 0,000 mm 0,0 UV-I 125 W/m 14,9 C 15,2 C 11,3 km/h (2 Bft) 95,65 %
28.06.2022 07:44 15,2 C 98 % 1019,6 hPa 0,0 l/m 9,7 km/h (2 Bft) W-NW 292 0 min 0,000 mm 0,0 UV-I 100 W/m 14,9 C 15,2 C 11,3 km/h (2 Bft) 95,65 %
28.06.2022 07:43 15,2 C 98 % 1019,7 hPa 0,0 l/m 6,4 km/h (2 Bft) W-NW 292 0 min 0,000 mm 0,0 UV-I 93 W/m 14,9 C 15,2 C 11,3 km/h (2 Bft) 100,00 %
28.06.2022 07:42 15,3 C 98 % 1019,6 hPa 0,0 l/m 6,4 km/h (2 Bft) W-NW 292 0 min 0,000 mm 0,0 UV-I 105 W/m 15,0 C 15,3 C 11,3 km/h (2 Bft) 100,00 %
28.06.2022 07:41 15,3 C 98 % 1019,6 hPa 0,0 l/m 4,8 km/h (1 Bft) NW 315 0 min 0,000 mm 0,0 UV-I 113 W/m 15,0 C 15,3 C 6,4 km/h (2 Bft) 95,65 %
28.06.2022 07:40 15,2 C 98 % 1019,6 hPa 0,0 l/m 4,8 km/h (1 Bft) W-NW 292 0 min 0,000 mm 0,5 UV-I 123 W/m 14,9 C 15,2 C 6,4 km/h (2 Bft) 95,65 %
28.06.2022 07:39 15,2 C 98 % 1019,6 hPa 0,0 l/m 6,4 km/h (2 Bft) W-NW 292 0 min 0,000 mm 0,0 UV-I 125 W/m 14,9 C 15,2 C 8,0 km/h (2 Bft) 100,00 %
28.06.2022 07:38 15,3 C 98 % 1019,6 hPa 0,0 l/m 6,4 km/h (2 Bft) W-NW 292 0 min 0,000 mm 0,0 UV-I 97 W/m 15,0 C 15,3 C 11,3 km/h (2 Bft) 95,65 %
28.06.2022 07:37 15,3 C 98 % 1019,6 hPa 0,0 l/m 6,4 km/h (2 Bft) W-NW 292 0 min 0,000 mm 0,0 UV-I 102 W/m 15,0 C 15,3 C 9,7 km/h (2 Bft) 100,00 %
28.06.2022 07:36 15,2 C 98 % 1019,6 hPa 0,0 l/m 8,0 km/h (2 Bft) W 270 0 min 0,000 mm 0,0 UV-I 123 W/m 14,9 C 15,2 C 11,3 km/h (2 Bft) 100,00 %
28.06.2022 07:35 15,3 C 98 % 1019,6 hPa 0,0 l/m 6,4 km/h (2 Bft) W 270 0 min 0,000 mm 0,5 UV-I 125 W/m 15,0 C 15,3 C 9,7 km/h (2 Bft) 95,65 %
28.06.2022 07:34 15,3 C 98 % 1019,5 hPa 0,0 l/m 8,0 km/h (2 Bft) W-NW 292 0 min 0,000 mm 0,5 UV-I 127 W/m 15,0 C 15,3 C 11,3 km/h (2 Bft) 100,00 %
28.06.2022 07:33 15,3 C 98 % 1019,6 hPa 0,0 l/m 6,4 km/h (2 Bft) W-NW 292 0 min 0,000 mm 0,0 UV-I 130 W/m 15,0 C 15,3 C 11,3 km/h (2 Bft) 95,65 %
28.06.2022 07:32 15,3 C 98 % 1019,6 hPa 0,0 l/m 6,4 km/h (2 Bft) W 270 0 min 0,000 mm 0,5 UV-I 120 W/m 15,0 C 15,3 C 11,3 km/h (2 Bft) 100,00 %
28.06.2022 07:31 15,4 C 98 % 1019,6 hPa 0,0 l/m 4,8 km/h (1 Bft) W 270 0 min 0,000 mm 0,5 UV-I 146 W/m 15,1 C 15,4 C 9,7 km/h (2 Bft) 100,00 %
28.06.2022 07:30 15,3 C 98 % 1019,5 hPa 0,0 l/m 4,8 km/h (1 Bft) W 270 0 min 0,000 mm 0,5 UV-I 116 W/m 15,0 C 15,3 C 9,7 km/h (2 Bft) 95,65 %
28.06.2022 07:29 15,3 C 98 % 1019,5 hPa 0,0 l/m 4,8 km/h (1 Bft) W 270 1 min 0,000 mm 0,5 UV-I 165 W/m 15,0 C 15,3 C 6,4 km/h (2 Bft) 100,00 %
28.06.2022 07:28 15,2 C 98 % 1019,5 hPa 0,0 l/m 6,4 km/h (2 Bft) W-NW 292 0 min 0,000 mm 0,5 UV-I 142 W/m 14,9 C 15,2 C 11,3 km/h (2 Bft) 86,96 %
28.06.2022 07:27 15,2 C 98 % 1019,5 hPa 0,0 l/m 6,4 km/h (2 Bft) W 270 0 min 0,000 mm 0,7 UV-I 109 W/m 14,9 C 15,2 C 11,3 km/h (2 Bft) 100,00 %
28.06.2022 07:26 15,1 C 98 % 1019,4 hPa 0,0 l/m 6,4 km/h (2 Bft) W 270 0 min 0,000 mm 0,6 UV-I 109 W/m 14,8 C 15,1 C 12,9 km/h (3 Bft) 100,00 %
28.06.2022 07:25 15,1 C 98 % 1019,4 hPa 0,0 l/m 9,7 km/h (2 Bft) W 270 0 min 0,000 mm 0,6 UV-I 95 W/m 14,8 C 15,1 C 12,9 km/h (3 Bft) 91,30 %
28.06.2022 07:24 15,2 C 98 % 1019,4 hPa 0,0 l/m 11,3 km/h (2 Bft) W 270 0 min 0,000 mm 0,6 UV-I 116 W/m 14,9 C 15,2 C 12,9 km/h (3 Bft) 100,00 %
28.06.2022 07:23 15,1 C 98 % 1019,4 hPa 0,0 l/m 11,3 km/h (2 Bft) W-SW 247 1 min 0,000 mm 0,5 UV-I 227 W/m 14,8 C 15,1 C 17,7 km/h (3 Bft) 100,00 %
28.06.2022 07:22 15,2 C 98 % 1019,4 hPa 0,0 l/m 11,3 km/h (2 Bft) W 270 1 min 0,000 mm 0,7 UV-I 227 W/m 14,9 C 15,2 C 14,5 km/h (3 Bft) 100,00 %
28.06.2022 07:21 15,2 C 98 % 1019,4 hPa 0,0 l/m 9,7 km/h (2 Bft) W-SW 247 1 min 0,000 mm 0,5 UV-I 227 W/m 14,9 C 15,2 C 16,1 km/h (3 Bft) 100,00 %
28.06.2022 07:20 15,2 C 98 % 1019,3 hPa 0,0 l/m 11,3 km/h (2 Bft) W 270 0 min 0,000 mm 0,5 UV-I 128 W/m 14,9 C 15,2 C 12,9 km/h (3 Bft) 100,00 %
28.06.2022 07:19 15,2 C 98 % 1019,4 hPa 0,0 l/m 11,3 km/h (2 Bft) W-SW 247 0 min 0,000 mm 0,5 UV-I 88 W/m 14,9 C 15,2 C 14,5 km/h (3 Bft) 95,65 %
28.06.2022 07:18 15,2 C 98 % 1019,4 hPa 0,0 l/m 9,7 km/h (2 Bft) W-SW 247 0 min 0,000 mm 0,5 UV-I 113 W/m 14,9 C 15,2 C 14,5 km/h (3 Bft) 95,65 %
28.06.2022 07:17 15,2 C 98 % 1019,4 hPa 0,0 l/m 9,7 km/h (2 Bft) W-SW 247 0 min 0,000 mm 0,6 UV-I 123 W/m 14,9 C 15,2 C 14,5 km/h (3 Bft) 95,65 %
28.06.2022 07:16 15,1 C 98 % 1019,4 hPa 0,0 l/m 8,0 km/h (2 Bft) W 270 0 min 0,000 mm 0,7 UV-I 123 W/m 14,8 C 15,1 C 11,3 km/h (2 Bft) 86,96 %
28.06.2022 07:15 15,1 C 98 % 1019,4 hPa 0,0 l/m 12,9 km/h (3 Bft) W 270 0 min 0,000 mm 0,6 UV-I 123 W/m 14,8 C 15,1 C 16,1 km/h (3 Bft) 100,00 %
28.06.2022 07:14 15,1 C 98 % 1019,4 hPa 0,0 l/m 11,3 km/h (2 Bft) W-SW 247 0 min 0,000 mm 0,6 UV-I 123 W/m 14,8 C 15,1 C 14,5 km/h (3 Bft) 91,30 %
28.06.2022 07:13 15,1 C 98 % 1019,4 hPa 0,0 l/m 11,3 km/h (2 Bft) W-SW 247 0 min 0,000 mm 0,6 UV-I 123 W/m 14,8 C 15,1 C 16,1 km/h (3 Bft) 95,65 %
28.06.2022 07:12 15,2 C 98 % 1019,4 hPa 0,0 l/m 11,3 km/h (2 Bft) W-SW 247 1 min 0,000 mm 0,6 UV-I 162 W/m 14,9 C 15,2 C 14,5 km/h (3 Bft) 82,61 %
28.06.2022 07:11 15,2 C 98 % 1019,4 hPa 0,0 l/m 11,3 km/h (2 Bft) W 270 1 min 0,000 mm 0,6 UV-I 174 W/m 14,9 C 15,2 C 14,5 km/h (3 Bft) 91,30 %
28.06.2022 07:10 15,2 C 98 % 1019,5 hPa 0,0 l/m 12,9 km/h (3 Bft) W-SW 247 1 min 0,000 mm 0,6 UV-I 160 W/m 14,9 C 15,2 C 17,7 km/h (3 Bft) 95,65 %
28.06.2022 07:09 15,2 C 98 % 1019,4 hPa 0,0 l/m 9,7 km/h (2 Bft) W 270 0 min 0,000 mm 0,5 UV-I 114 W/m 14,9 C 15,2 C 14,5 km/h (3 Bft) 95,65 %
28.06.2022 07:08 15,2 C 98 % 1019,5 hPa 0,0 l/m 12,9 km/h (3 Bft) W 270 0 min 0,000 mm 0,0 UV-I 100 W/m 14,9 C 15,2 C 17,7 km/h (3 Bft) 95,65 %
28.06.2022 07:07 15,2 C 98 % 1019,4 hPa 0,0 l/m 9,7 km/h (2 Bft) W 270 1 min 0,000 mm 0,5 UV-I 163 W/m 14,9 C 15,2 C 14,5 km/h (3 Bft) 91,30 %
28.06.2022 07:06 15,2 C 98 % 1019,5 hPa 0,0 l/m 16,1 km/h (3 Bft) W 270 0 min 0,000 mm 0,5 UV-I 125 W/m 14,9 C 15,2 C 20,9 km/h (4 Bft) 95,65 %
28.06.2022 07:05 15,3 C 98 % 1019,5 hPa 0,0 l/m 11,3 km/h (2 Bft) W 270 0 min 0,000 mm 0,0 UV-I 134 W/m 15,0 C 15,3 C 17,7 km/h (3 Bft) 91,30 %
28.06.2022 07:04 15,3 C 98 % 1019,5 hPa 0,0 l/m 9,7 km/h (2 Bft) W 270 0 min 0,000 mm 0,0 UV-I 76 W/m 15,0 C 15,3 C 12,9 km/h (3 Bft) 95,65 %
28.06.2022 07:03 15,4 C 98 % 1019,5 hPa 0,0 l/m 9,7 km/h (2 Bft) W-NW 292 0 min 0,000 mm 0,0 UV-I 44 W/m 15,1 C 15,4 C 12,9 km/h (3 Bft) 91,30 %
28.06.2022 07:02 15,4 C 98 % 1019,6 hPa 0,0 l/m 12,9 km/h (3 Bft) W-SW 247 0 min 0,000 mm 0,0 UV-I 44 W/m 15,1 C 15,4 C 17,7 km/h (3 Bft) 82,61 %
28.06.2022 07:01 15,4 C 98 % 1019,5 hPa 0,0 l/m 12,9 km/h (3 Bft) W-SW 247 0 min 0,000 mm 0,0 UV-I 51 W/m 15,1 C 15,4 C 16,1 km/h (3 Bft) 82,61 %
28.06.2022 07:00 15,4 C 98 % 1019,4 hPa 0,0 l/m 9,7 km/h (2 Bft) W-SW 247 0 min 0,025 mm 0,0 UV-I 90 W/m 15,1 C 15,4 C 14,5 km/h (3 Bft) 95,65 %
28.06.2022 06:59 15,4 C 98 % 1019,4 hPa 0,0 l/m 12,9 km/h (3 Bft) W-SW 247 0 min 0,000 mm 0,0 UV-I 49 W/m 15,1 C 15,4 C 16,1 km/h (3 Bft) 86,96 %
28.06.2022 06:58 15,4 C 98 % 1019,4 hPa 0,0 l/m 12,9 km/h (3 Bft) W 270 0 min 0,000 mm 0,0 UV-I 113 W/m 15,1 C 15,4 C 19,3 km/h (3 Bft) 100,00 %
28.06.2022 06:57 15,4 C 98 % 1019,4 hPa 0,0 l/m 12,9 km/h (3 Bft) W 270 0 min 0,000 mm 0,0 UV-I 81 W/m 15,1 C 15,4 C 16,1 km/h (3 Bft) 82,61 %
28.06.2022 06:56 15,3 C 98 % 1019,4 hPa 0,0 l/m 12,9 km/h (3 Bft) W-SW 247 0 min 0,000 mm 0,0 UV-I 81 W/m 15,0 C 15,3 C 16,1 km/h (3 Bft) 95,65 %
28.06.2022 06:55 15,3 C 98 % 1019,4 hPa 0,0 l/m 12,9 km/h (3 Bft) W-SW 247 0 min 0,000 mm 0,0 UV-I 90 W/m 15,0 C 15,3 C 19,3 km/h (3 Bft) 86,96 %
28.06.2022 06:54 15,3 C 98 % 1019,3 hPa 0,0 l/m 16,1 km/h (3 Bft) W-SW 247 0 min 0,000 mm 0,0 UV-I 74 W/m 15,0 C 15,3 C 20,9 km/h (4 Bft) 95,65 %
28.06.2022 06:53 15,3 C 98 % 1019,3 hPa 0,0 l/m 16,1 km/h (3 Bft) W-SW 247 0 min 0,000 mm 0,0 UV-I 62 W/m 15,0 C 15,3 C 19,3 km/h (3 Bft) 91,30 %
28.06.2022 06:52 15,2 C 98 % 1019,3 hPa 0,0 l/m 14,5 km/h (3 Bft) W-SW 247 0 min 0,000 mm 0,0 UV-I 97 W/m 14,9 C 15,2 C 20,9 km/h (4 Bft) 100,00 %
28.06.2022 06:51 15,2 C 98 % 1019,3 hPa 0,0 l/m 16,1 km/h (3 Bft) W-SW 247 0 min 0,000 mm 0,0 UV-I 86 W/m 14,9 C 15,2 C 19,3 km/h (3 Bft) 100,00 %
28.06.2022 06:50 15,2 C 98 % 1019,3 hPa 0,0 l/m 14,5 km/h (3 Bft) W-SW 247 0 min 0,000 mm 0,0 UV-I 63 W/m 14,9 C 15,2 C 17,7 km/h (3 Bft) 91,30 %
28.06.2022 06:49 15,1 C 98 % 1019,3 hPa 0,0 l/m 16,1 km/h (3 Bft) W-SW 247 0 min 0,000 mm 0,0 UV-I 49 W/m 14,8 C 15,1 C 19,3 km/h (3 Bft) 100,00 %
28.06.2022 06:48 15,1 C 98 % 1019,2 hPa 0,0 l/m 14,5 km/h (3 Bft) W-SW 247 0 min 0,000 mm 0,0 UV-I 35 W/m 14,8 C 15,1 C 19,3 km/h (3 Bft) 100,00 %
28.06.2022 06:47 15,1 C 98 % 1019,2 hPa 0,0 l/m 17,7 km/h (3 Bft) W-SW 247 0 min 0,000 mm 0,0 UV-I 46 W/m 14,8 C 15,1 C 22,5 km/h (4 Bft) 100,00 %
28.06.2022 06:46 15,1 C 98 % 1019,2 hPa 0,0 l/m 16,1 km/h (3 Bft) W 270 0 min 0,000 mm 0,0 UV-I 37 W/m 14,8 C 15,1 C 20,9 km/h (4 Bft) 95,65 %
28.06.2022 06:45 15,1 C 98 % 1019,3 hPa 0,0 l/m 14,5 km/h (3 Bft) W 270 0 min 0,000 mm 0,0 UV-I 40 W/m 14,8 C 15,1 C 19,3 km/h (3 Bft) 95,65 %
28.06.2022 06:44 15,1 C 98 % 1019,3 hPa 0,0 l/m 14,5 km/h (3 Bft) W-SW 247 0 min 0,000 mm 0,0 UV-I 35 W/m 14,8 C 15,1 C 17,7 km/h (3 Bft) 100,00 %
28.06.2022 06:43 15,1 C 98 % 1019,3 hPa 0,0 l/m 14,5 km/h (3 Bft) W-SW 247 0 min 0,000 mm 0,0 UV-I 30 W/m 14,8 C 15,1 C 16,1 km/h (3 Bft) 95,65 %
28.06.2022 06:42 15,0 C 98 % 1019,3 hPa 0,0 l/m 17,7 km/h (3 Bft) W-SW 247 0 min 0,000 mm 0,0 UV-I 35 W/m 14,7 C 15,0 C 22,5 km/h (4 Bft) 95,65 %
28.06.2022 06:41 14,9 C 98 % 1019,4 hPa 0,0 l/m 14,5 km/h (3 Bft) W-SW 247 0 min 0,000 mm 0,0 UV-I 33 W/m 14,6 C 14,9 C 17,7 km/h (3 Bft) 100,00 %
28.06.2022 06:40 14,9 C 98 % 1019,3 hPa 0,0 l/m 14,5 km/h (3 Bft) W-SW 247 0 min 0,000 mm 0,0 UV-I 46 W/m 14,6 C 14,9 C 19,3 km/h (3 Bft) 100,00 %
28.06.2022 06:39 14,9 C 98 % 1019,4 hPa 0,0 l/m 17,7 km/h (3 Bft) W-SW 247 0 min 0,000 mm 0,0 UV-I 35 W/m 14,6 C 14,9 C 20,9 km/h (4 Bft) 91,30 %
28.06.2022 06:38 14,9 C 98 % 1019,3 hPa 0,0 l/m 16,1 km/h (3 Bft) W-SW 247 0 min 0,000 mm 0,0 UV-I 47 W/m 14,6 C 14,9 C 20,9 km/h (4 Bft) 86,96 %
28.06.2022 06:37 14,9 C 98 % 1019,3 hPa 0,0 l/m 17,7 km/h (3 Bft) W-SW 247 0 min 0,000 mm 0,0 UV-I 26 W/m 14,6 C 14,9 C 20,9 km/h (4 Bft) 100,00 %
28.06.2022 06:36 14,9 C 98 % 1019,3 hPa 0,0 l/m 16,1 km/h (3 Bft) W-SW 247 0 min 0,000 mm 0,0 UV-I 30 W/m 14,6 C 14,9 C 19,3 km/h (3 Bft) 100,00 %
28.06.2022 06:35 14,9 C 98 % 1019,4 hPa 0,0 l/m 17,7 km/h (3 Bft) W-SW 247 0 min 0,000 mm 0,0 UV-I 33 W/m 14,6 C 14,9 C 19,3 km/h (3 Bft) 91,30 %
28.06.2022 06:34 14,9 C 98 % 1019,4 hPa 0,0 l/m 16,1 km/h (3 Bft) W-SW 247 0 min 0,000 mm 0,0 UV-I 53 W/m 14,6 C 14,9 C 22,5 km/h (4 Bft) 100,00 %
28.06.2022 06:33 14,9 C 98 % 1019,4 hPa 0,0 l/m 16,1 km/h (3 Bft) W-SW 247 0 min 0,000 mm 0,0 UV-I 30 W/m 14,6 C 14,9 C 19,3 km/h (3 Bft) 100,00 %
28.06.2022 06:32 14,9 C 98 % 1019,3 hPa 0,0 l/m 16,1 km/h (3 Bft) SW 225 0 min 0,000 mm 0,0 UV-I 33 W/m 14,6 C 14,9 C 19,3 km/h (3 Bft) 95,65 %
28.06.2022 06:31 14,9 C 98 % 1019,2 hPa 0,0 l/m 17,7 km/h (3 Bft) W-SW 247 0 min 0,000 mm 0,0 UV-I 33 W/m 14,6 C 14,9 C 20,9 km/h (4 Bft) 95,65 %
28.06.2022 06:30 14,9 C 98 % 1019,3 hPa 0,0 l/m 16,1 km/h (3 Bft) W-SW 247 0 min 0,000 mm 0,0 UV-I 39 W/m 14,6 C 14,9 C 20,9 km/h (4 Bft) 100,00 %
28.06.2022 06:29 14,9 C 98 % 1019,2 hPa 0,0 l/m 14,5 km/h (3 Bft) W-SW 247 0 min 0,000 mm 0,0 UV-I 42 W/m 14,6 C 14,9 C 17,7 km/h (3 Bft) 100,00 %
28.06.2022 06:28 14,9 C 98 % 1019,4 hPa 0,0 l/m 17,7 km/h (3 Bft) W-SW 247 0 min 0,000 mm 0,0 UV-I 39 W/m 14,6 C 14,9 C 20,9 km/h (4 Bft) 100,00 %
28.06.2022 06:27 14,9 C 98 % 1019,3 hPa 0,0 l/m 16,1 km/h (3 Bft) W-SW 247 0 min 0,000 mm 0,0 UV-I 37 W/m 14,6 C 14,9 C 19,3 km/h (3 Bft) 100,00 %
28.06.2022 06:26 14,9 C 98 % 1019,3 hPa 0,0 l/m 17,7 km/h (3 Bft) SW 225 0 min 0,000 mm 0,0 UV-I 37 W/m 14,6 C 14,9 C 20,9 km/h (4 Bft) 100,00 %
28.06.2022 06:25 14,9 C 98 % 1019,2 hPa 0,0 l/m 17,7 km/h (3 Bft) SW 225 0 min 0,000 mm 0,0 UV-I 54 W/m 14,6 C 14,9 C 19,3 km/h (3 Bft) 100,00 %
28.06.2022 06:24 15,0 C 98 % 1019,3 hPa 0,0 l/m 17,7 km/h (3 Bft) SW 225 0 min 0,000 mm 0,0 UV-I 53 W/m 14,7 C 15,0 C 20,9 km/h (4 Bft) 100,00 %
28.06.2022 06:23 15,0 C 98 % 1019,3 hPa 0,0 l/m 19,3 km/h (3 Bft) SW 225 0 min 0,000 mm 0,0 UV-I 37 W/m 14,7 C 15,0 C 22,5 km/h (4 Bft) 100,00 %
28.06.2022 06:22 15,0 C 98 % 1019,3 hPa 0,0 l/m 16,1 km/h (3 Bft) SW 225 0 min 0,000 mm 0,0 UV-I 44 W/m 14,7 C 15,0 C 20,9 km/h (4 Bft) 95,65 %
28.06.2022 06:21 15,0 C 98 % 1019,3 hPa 0,0 l/m 16,1 km/h (3 Bft) W-SW 247 0 min 0,000 mm 0,0 UV-I 30 W/m 14,7 C 15,0 C 20,9 km/h (4 Bft) 100,00 %
28.06.2022 06:20 15,0 C 98 % 1019,4 hPa 0,0 l/m 14,5 km/h (3 Bft) W-SW 247 0 min 0,000 mm 0,0 UV-I 32 W/m 14,7 C 15,0 C 16,1 km/h (3 Bft) 95,65 %
28.06.2022 06:19 15,0 C 98 % 1019,4 hPa 0,0 l/m 16,1 km/h (3 Bft) W-SW 247 0 min 0,000 mm 0,0 UV-I 19 W/m 14,7 C 15,0 C 19,3 km/h (3 Bft) 95,65 %
28.06.2022 06:18 15,0 C 98 % 1019,4 hPa 0,0 l/m 14,5 km/h (3 Bft) W-SW 247 0 min 0,000 mm 0,0 UV-I 25 W/m 14,7 C 15,0 C 17,7 km/h (3 Bft) 100,00 %
28.06.2022 06:17 15,0 C 98 % 1019,3 hPa 0,0 l/m 14,5 km/h (3 Bft) W-SW 247 0 min 0,000 mm 0,0 UV-I 23 W/m 14,7 C 15,0 C 19,3 km/h (3 Bft) 100,00 %
28.06.2022 06:16 15,0 C 98 % 1019,4 hPa 0,0 l/m 12,9 km/h (3 Bft) W-SW 247 0 min 0,000 mm 0,0 UV-I 26 W/m 14,7 C 15,0 C 16,1 km/h (3 Bft) 100,00 %
28.06.2022 06:15 14,9 C 98 % 1019,3 hPa 0,0 l/m 16,1 km/h (3 Bft) W-SW 247 0 min 0,000 mm 0,0 UV-I 26 W/m 14,6 C 14,9 C 17,7 km/h (3 Bft) 100,00 %
28.06.2022 06:14 14,9 C 98 % 1019,3 hPa 0,0 l/m 14,5 km/h (3 Bft) W-SW 247 0 min 0,000 mm 0,0 UV-I 25 W/m 14,6 C 14,9 C 17,7 km/h (3 Bft) 100,00 %
28.06.2022 06:13 15,0 C 98 % 1019,3 hPa 0,0 l/m 12,9 km/h (3 Bft) W-SW 247 0 min 0,000 mm 0,0 UV-I 30 W/m 14,7 C 15,0 C 14,5 km/h (3 Bft) 100,00 %
28.06.2022 06:12 15,0 C 98 % 1019,3 hPa 0,0 l/m 11,3 km/h (2 Bft) W-SW 247 0 min 0,000 mm 0,0 UV-I 25 W/m 14,7 C 15,0 C 14,5 km/h (3 Bft) 100,00 %
28.06.2022 06:11 14,9 C 98 % 1019,3 hPa 0,0 l/m 12,9 km/h (3 Bft) W-SW 247 0 min 0,000 mm 0,0 UV-I 21 W/m 14,6 C 14,9 C 16,1 km/h (3 Bft) 100,00 %
28.06.2022 06:10 14,9 C 98 % 1019,4 hPa 0,0 l/m 11,3 km/h (2 Bft) W-SW 247 0 min 0,000 mm 0,0 UV-I 25 W/m 14,6 C 14,9 C 14,5 km/h (3 Bft) 100,00 %
28.06.2022 06:09 14,9 C 98 % 1019,4 hPa 0,0 l/m 11,3 km/h (2 Bft) SW 225 0 min 0,000 mm 0,0 UV-I 32 W/m 14,6 C 14,9 C 16,1 km/h (3 Bft) 91,30 %
28.06.2022 06:08 15,0 C 98 % 1019,4 hPa 0,0 l/m 11,3 km/h (2 Bft) W-SW 247 0 min 0,000 mm 0,0 UV-I 23 W/m 14,7 C 15,0 C 16,1 km/h (3 Bft) 100,00 %
28.06.2022 06:07 14,9 C 98 % 1019,4 hPa 0,0 l/m 12,9 km/h (3 Bft) W-SW 247 0 min 0,000 mm 0,0 UV-I 25 W/m 14,6 C 14,9 C 14,5 km/h (3 Bft) 100,00 %
28.06.2022 06:06 14,9 C 98 % 1019,4 hPa 0,0 l/m 12,9 km/h (3 Bft) W-SW 247 0 min 0,000 mm 0,0 UV-I 19 W/m 14,6 C 14,9 C 16,1 km/h (3 Bft) 100,00 %
28.06.2022 06:05 15,0 C 98 % 1019,5 hPa 0,0 l/m 11,3 km/h (2 Bft) W-SW 247 0 min 0,000 mm 0,0 UV-I 23 W/m 14,7 C 15,0 C 14,5 km/h (3 Bft) 100,00 %
28.06.2022 06:04 14,9 C 98 % 1019,5 hPa 0,0 l/m 9,7 km/h (2 Bft) W-SW 247 0 min 0,000 mm 0,0 UV-I 19 W/m 14,6 C 14,9 C 12,9 km/h (3 Bft) 95,65 %
28.06.2022 06:03 14,9 C 98 % 1019,5 hPa 0,0 l/m 11,3 km/h (2 Bft) W-SW 247 0 min 0,000 mm 0,0 UV-I 18 W/m 14,6 C 14,9 C 14,5 km/h (3 Bft) 100,00 %
28.06.2022 06:02 15,0 C 98 % 1019,5 hPa 0,0 l/m 11,3 km/h (2 Bft) W-SW 247 0 min 0,000 mm 0,0 UV-I 14 W/m 14,7 C 15,0 C 14,5 km/h (3 Bft) 100,00 %
28.06.2022 06:01 15,0 C 98 % 1019,4 hPa 0,0 l/m 9,7 km/h (2 Bft) W-SW 247 0 min 0,000 mm 0,0 UV-I 14 W/m 14,7 C 15,0 C 12,9 km/h (3 Bft) 95,65 %
28.06.2022 06:00 14,9 C 98 % 1019,4 hPa 0,0 l/m 8,0 km/h (2 Bft) W-SW 247 0 min 0,000 mm 0,0 UV-I 12 W/m 14,6 C 14,9 C 11,3 km/h (2 Bft) 100,00 %
28.06.2022 05:59 15,0 C 98 % 1019,5 hPa 0,0 l/m 9,7 km/h (2 Bft) W-SW 247 0 min 0,000 mm 0,0 UV-I 12 W/m 14,7 C 15,0 C 12,9 km/h (3 Bft) 100,00 %
28.06.2022 05:58 15,0 C 98 % 1019,5 hPa 0,0 l/m 9,7 km/h (2 Bft) W-SW 247 0 min 0,000 mm 0,0 UV-I 12 W/m 14,7 C 15,0 C 16,1 km/h (3 Bft) 100,00 %
28.06.2022 05:57 15,0 C 98 % 1019,5 hPa 0,0 l/m 9,7 km/h (2 Bft) W-SW 247 0 min 0,000 mm 0,0 UV-I 12 W/m 14,7 C 15,0 C 14,5 km/h (3 Bft) 95,65 %
28.06.2022 05:56 14,9 C 98 % 1019,5 hPa 0,0 l/m 11,3 km/h (2 Bft) SW 225 0 min 0,000 mm 0,0 UV-I 12 W/m 14,6 C 14,9 C 12,9 km/h (3 Bft) 100,00 %
28.06.2022 05:55 15,0 C 98 % 1019,5 hPa 0,0 l/m 11,3 km/h (2 Bft) SW 225 0 min 0,000 mm 0,0 UV-I 12 W/m 14,7 C 15,0 C 14,5 km/h (3 Bft) 100,00 %
28.06.2022 05:54 14,9 C 98 % 1019,6 hPa 0,0 l/m 11,3 km/h (2 Bft) SW 225 0 min 0,000 mm 0,0 UV-I 11 W/m 14,6 C 14,9 C 14,5 km/h (3 Bft) 100,00 %
28.06.2022 05:53 14,9 C 98 % 1019,5 hPa 0,0 l/m 9,7 km/h (2 Bft) W-SW 247 0 min 0,000 mm 0,0 UV-I 11 W/m 14,6 C 14,9 C 12,9 km/h (3 Bft) 100,00 %
28.06.2022 05:52 14,9 C 98 % 1019,6 hPa 0,0 l/m 9,7 km/h (2 Bft) W-SW 247 0 min 0,000 mm 0,0 UV-I 9 W/m 14,6 C 14,9 C 12,9 km/h (3 Bft) 100,00 %
28.06.2022 05:51 14,9 C 98 % 1019,5 hPa 0,0 l/m 9,7 km/h (2 Bft) W-SW 247 0 min 0,000 mm 0,0 UV-I 14 W/m 14,6 C 14,9 C 12,9 km/h (3 Bft) 100,00 %
28.06.2022 05:50 14,9 C 98 % 1019,6 hPa 0,0 l/m 9,7 km/h (2 Bft) W-SW 247 0 min 0,000 mm 0,0 UV-I 12 W/m 14,6 C 14,9 C 12,9 km/h (3 Bft) 100,00 %
28.06.2022 05:49 14,9 C 98 % 1019,6 hPa 0,0 l/m 8,0 km/h (2 Bft) W-SW 247 0 min 0,000 mm 0,0 UV-I 9 W/m 14,6 C 14,9 C 9,7 km/h (2 Bft) 100,00 %
28.06.2022 05:48 14,9 C 98 % 1019,6 hPa 0,0 l/m 9,7 km/h (2 Bft) W-SW 247 0 min 0,000 mm 0,0 UV-I 9 W/m 14,6 C 14,9 C 12,9 km/h (3 Bft) 100,00 %
28.06.2022 05:47 14,9 C 98 % 1019,6 hPa 0,0 l/m 8,0 km/h (2 Bft) W-SW 247 0 min 0,000 mm 0,0 UV-I 11 W/m 14,6 C 14,9 C 11,3 km/h (2 Bft) 100,00 %
28.06.2022 05:46 14,8 C 98 % 1019,5 hPa 0,0 l/m 9,7 km/h (2 Bft) W-SW 247 0 min 0,000 mm 0,0 UV-I 12 W/m 14,5 C 14,8 C 12,9 km/h (3 Bft) 100,00 %
28.06.2022 05:45 14,8 C 98 % 1019,6 hPa 0,0 l/m 8,0 km/h (2 Bft) W-SW 247 0 min 0,000 mm 0,0 UV-I 12 W/m 14,5 C 14,8 C 11,3 km/h (2 Bft) 91,30 %
28.06.2022 05:44 14,8 C 98 % 1019,5 hPa 0,0 l/m 9,7 km/h (2 Bft) W-SW 247 0 min 0,000 mm 0,0 UV-I 11 W/m 14,5 C 14,8 C 12,9 km/h (3 Bft) 91,30 %
28.06.2022 05:43 14,8 C 98 % 1019,6 hPa 0,0 l/m 9,7 km/h (2 Bft) W-SW 247 0 min 0,000 mm 0,0 UV-I 7 W/m 14,5 C 14,8 C 11,3 km/h (2 Bft) 100,00 %
28.06.2022 05:42 14,8 C 98 % 1019,6 hPa 0,0 l/m 8,0 km/h (2 Bft) W-SW 247 0 min 0,000 mm 0,0 UV-I 5 W/m 14,5 C 14,8 C 12,9 km/h (3 Bft) 100,00 %
28.06.2022 05:41 14,8 C 98 % 1019,6 hPa 0,0 l/m 8,0 km/h (2 Bft) W-SW 247 0 min 0,000 mm 0,0 UV-I 9 W/m 14,5 C 14,8 C 8,0 km/h (2 Bft) 100,00 %
28.06.2022 05:40 14,8 C 98 % 1019,6 hPa 0,0 l/m 8,0 km/h (2 Bft) W-SW 247 0 min 0,000 mm 0,0 UV-I 9 W/m 14,5 C 14,8 C 9,7 km/h (2 Bft) 100,00 %
28.06.2022 05:39 14,8 C 98 % 1019,5 hPa 0,0 l/m 8,0 km/h (2 Bft) W-SW 247 0 min 0,000 mm 0,0 UV-I 9 W/m 14,5 C 14,8 C 11,3 km/h (2 Bft) 100,00 %
28.06.2022 05:38 14,8 C 98 % 1019,6 hPa 0,0 l/m 4,8 km/h (1 Bft) W-SW 247 0 min 0,000 mm 0,0 UV-I 11 W/m 14,5 C 14,8 C 6,4 km/h (2 Bft) 100,00 %
28.06.2022 05:37 14,8 C 98 % 1019,6 hPa 0,0 l/m 8,0 km/h (2 Bft) W 270 0 min 0,000 mm 0,0 UV-I 11 W/m 14,5 C 14,8 C 11,3 km/h (2 Bft) 100,00 %
28.06.2022 05:36 14,8 C 98 % 1019,6 hPa 0,0 l/m 6,4 km/h (2 Bft) W 270 0 min 0,000 mm 0,0 UV-I 11 W/m 14,5 C 14,8 C 9,7 km/h (2 Bft) 100,00 %
28.06.2022 05:35 14,9 C 98 % 1019,6 hPa 0,0 l/m 4,8 km/h (1 Bft) W-SW 247 0 min 0,000 mm 0,0 UV-I 7 W/m 14,6 C 14,9 C 6,4 km/h (2 Bft) 86,96 %
28.06.2022 05:34 14,9 C 98 % 1019,6 hPa 0,0 l/m 4,8 km/h (1 Bft) W-SW 247 0 min 0,000 mm 0,0 UV-I 5 W/m 14,6 C 14,9 C 6,4 km/h (2 Bft) 100,00 %
28.06.2022 05:33 14,9 C 98 % 1019,6 hPa 0,0 l/m 4,8 km/h (1 Bft) W-SW 247 0 min 0,000 mm 0,0 UV-I 5 W/m 14,6 C 14,9 C 9,7 km/h (2 Bft) 100,00 %
28.06.2022 05:32 14,9 C 98 % 1019,6 hPa 0,0 l/m 4,8 km/h (1 Bft) W-SW 247 0 min 0,000 mm 0,0 UV-I 0 W/m 14,6 C 14,9 C 6,4 km/h (2 Bft) 100,00 %
28.06.2022 05:31 14,9 C 98 % 1019,6 hPa 0,0 l/m 3,2 km/h (1 Bft) W 270 0 min 0,000 mm 0,0 UV-I 0 W/m 14,6 C 14,9 C 4,8 km/h (1 Bft) 100,00 %
28.06.2022 05:30 14,9 C 98 % 1019,6 hPa 0,0 l/m 3,2 km/h (1 Bft) W 270 0 min 0,000 mm 0,0 UV-I 0 W/m 14,6 C 14,9 C 4,8 km/h (1 Bft) 100,00 %
28.06.2022 05:29 14,9 C 98 % 1019,6 hPa 0,0 l/m 4,8 km/h (1 Bft) W-SW 247 0 min 0,000 mm 0,0 UV-I 0 W/m 14,6 C 14,9 C 8,0 km/h (2 Bft) 100,00 %
28.06.2022 05:28 14,9 C 98 % 1019,7 hPa 0,0 l/m 3,2 km/h (1 Bft) W-NW 292 0 min 0,000 mm 0,0 UV-I 0 W/m 14,6 C 14,9 C 4,8 km/h (1 Bft) 100,00 %
28.06.2022 05:27 14,9 C 98 % 1019,7 hPa 0,0 l/m 4,8 km/h (1 Bft) NW 315 0 min 0,000 mm 0,0 UV-I 0 W/m 14,6 C 14,9 C 8,0 km/h (2 Bft) 100,00 %
28.06.2022 05:26 14,9 C 97 % 1019,7 hPa 0,0 l/m 3,2 km/h (1 Bft) W-NW 292 0 min 0,000 mm 0,0 UV-I 0 W/m 14,4 C 14,9 C 8,0 km/h (2 Bft) 100,00 %
28.06.2022 05:25 14,9 C 98 % 1019,7 hPa 0,0 l/m 1,6 km/h (1 Bft) W-NW 292 0 min 0,000 mm 0,0 UV-I 0 W/m 14,6 C 14,9 C 3,2 km/h (1 Bft) 100,00 %
28.06.2022 05:24 14,8 C 97 % 1019,7 hPa 0,0 l/m 3,2 km/h (1 Bft) W 270 0 min 0,000 mm 0,0 UV-I 0 W/m 14,3 C 14,8 C 4,8 km/h (1 Bft) 100,00 %
28.06.2022 05:23 14,8 C 97 % 1019,6 hPa 0,0 l/m 3,2 km/h (1 Bft) NW 315 0 min 0,000 mm 0,0 UV-I 0 W/m 14,3 C 14,8 C 6,4 km/h (2 Bft) 91,30 %
28.06.2022 05:22 14,9 C 97 % 1019,6 hPa 0,0 l/m 8,0 km/h (2 Bft) W-NW 292 0 min 0,000 mm 0,0 UV-I 0 W/m 14,4 C 14,9 C 11,3 km/h (2 Bft) 100,00 %
28.06.2022 05:21 14,9 C 97 % 1019,6 hPa 0,0 l/m 3,2 km/h (1 Bft) NW 315 0 min 0,000 mm 0,0 UV-I 0 W/m 14,4 C 14,9 C 6,4 km/h (2 Bft) 95,65 %
28.06.2022 05:20 14,9 C 97 % 1019,6 hPa 0,0 l/m 3,2 km/h (1 Bft) W-NW 292 0 min 0,000 mm 0,0 UV-I 0 W/m 14,4 C 14,9 C 4,8 km/h (1 Bft) 100,00 %
28.06.2022 05:19 14,9 C 97 % 1019,6 hPa 0,0 l/m 1,6 km/h (1 Bft) N 360 0 min 0,000 mm 0,0 UV-I 0 W/m 14,4 C 14,9 C 4,8 km/h (1 Bft) 100,00 %
28.06.2022 05:18 14,8 C 97 % 1019,6 hPa 0,0 l/m 3,2 km/h (1 Bft) W 270 0 min 0,000 mm 0,0 UV-I 0 W/m 14,3 C 14,8 C 6,4 km/h (2 Bft) 95,65 %
28.06.2022 05:17 14,9 C 97 % 1019,6 hPa 0,0 l/m 4,8 km/h (1 Bft) W 270 0 min 0,000 mm 0,0 UV-I 0 W/m 14,4 C 14,9 C 6,4 km/h (2 Bft) 100,00 %
28.06.2022 05:16 14,9 C 97 % 1019,7 hPa 0,0 l/m 3,2 km/h (1 Bft) NW 315 0 min 0,000 mm 0,0 UV-I 0 W/m 14,4 C 14,9 C 6,4 km/h (2 Bft) 100,00 %
28.06.2022 05:15 14,8 C 97 % 1019,7 hPa 0,0 l/m 4,8 km/h (1 Bft) NW 315 0 min 0,000 mm 0,0 UV-I 0 W/m 14,3 C 14,8 C 6,4 km/h (2 Bft) 100,00 %
28.06.2022 05:14 14,9 C 97 % 1019,6 hPa 0,0 l/m 4,8 km/h (1 Bft) NW 315 0 min 0,000 mm 0,0 UV-I 0 W/m 14,4 C 14,9 C 8,0 km/h (2 Bft) 100,00 %
28.06.2022 05:13 14,9 C 97 % 1019,7 hPa 0,0 l/m 4,8 km/h (1 Bft) NW 315 0 min 0,000 mm 0,0 UV-I 0 W/m 14,4 C 14,9 C 6,4 km/h (2 Bft) 100,00 %
28.06.2022 05:12 14,8 C 97 % 1019,7 hPa 0,0 l/m 4,8 km/h (1 Bft) NW 315 0 min 0,000 mm 0,0 UV-I 0 W/m 14,3 C 14,8 C 8,0 km/h (2 Bft) 100,00 %
28.06.2022 05:11 14,9 C 97 % 1019,6 hPa 0,0 l/m 9,7 km/h (2 Bft) NW 315 0 min 0,000 mm 0,0 UV-I 0 W/m 14,4 C 14,9 C 14,5 km/h (3 Bft) 100,00 %
28.06.2022 05:10 14,9 C 98 % 1019,6 hPa 0,0 l/m 8,0 km/h (2 Bft) NW 315 0 min 0,000 mm 0,0 UV-I 0 W/m 14,6 C 14,9 C 11,3 km/h (2 Bft) 100,00 %
28.06.2022 05:09 14,9 C 98 % 1019,5 hPa 0,0 l/m 4,8 km/h (1 Bft) NW 315 0 min 0,000 mm 0,0 UV-I 0 W/m 14,6 C 14,9 C 9,7 km/h (2 Bft) 91,30 %
28.06.2022 05:08 14,9 C 98 % 1019,6 hPa 0,0 l/m 1,6 km/h (1 Bft) W-NW 292 0 min 0,000 mm 0,0 UV-I 0 W/m 14,6 C 14,9 C 6,4 km/h (2 Bft) 100,00 %
28.06.2022 05:07 14,9 C 98 % 1019,7 hPa 0,0 l/m 1,6 km/h (1 Bft) NW 315 0 min 0,000 mm 0,0 UV-I 0 W/m 14,6 C 14,9 C 3,2 km/h (1 Bft) 95,65 %
28.06.2022 05:06 14,9 C 98 % 1019,6 hPa 0,0 l/m 1,6 km/h (1 Bft) NW 315 0 min 0,000 mm 0,0 UV-I 0 W/m 14,6 C 14,9 C 4,8 km/h (1 Bft) 100,00 %
28.06.2022 05:05 14,9 C 98 % 1019,6 hPa 0,0 l/m 4,8 km/h (1 Bft) NW 315 0 min 0,000 mm 0,0 UV-I 0 W/m 14,6 C 14,9 C 6,4 km/h (2 Bft) 100,00 %
28.06.2022 05:04 14,9 C 98 % 1019,5 hPa 0,0 l/m 8,0 km/h (2 Bft) NW 315 0 min 0,000 mm 0,0 UV-I 0 W/m 14,6 C 14,9 C 12,9 km/h (3 Bft) 100,00 %
28.06.2022 05:03 14,9 C 98 % 1019,6 hPa 0,0 l/m 6,4 km/h (2 Bft) W-NW 292 0 min 0,000 mm 0,0 UV-I 0 W/m 14,6 C 14,9 C 9,7 km/h (2 Bft) 95,65 %
28.06.2022 05:02 14,9 C 98 % 1019,6 hPa 0,0 l/m 6,4 km/h (2 Bft) W-NW 292 0 min 0,000 mm 0,0 UV-I 0 W/m 14,6 C 14,9 C 11,3 km/h (2 Bft) 100,00 %
28.06.2022 05:01 14,9 C 98 % 1019,6 hPa 0,0 l/m 4,8 km/h (1 Bft) NW 315 0 min 0,000 mm 0,0 UV-I 0 W/m 14,6 C 14,9 C 8,0 km/h (2 Bft) 95,65 %
28.06.2022 05:00 14,9 C 97 % 1019,6 hPa 0,0 l/m 8,0 km/h (2 Bft) NW 315 0 min 0,000 mm 0,0 UV-I 0 W/m 14,4 C 14,9 C 12,9 km/h (3 Bft) 100,00 %
28.06.2022 04:59 14,9 C 97 % 1019,5 hPa 0,0 l/m 9,7 km/h (2 Bft) W-NW 292 0 min 0,000 mm 0,0 UV-I 0 W/m 14,4 C 14,9 C 12,9 km/h (3 Bft) 100,00 %
28.06.2022 04:58 14,9 C 97 % 1019,6 hPa 0,0 l/m 6,4 km/h (2 Bft) NW 315 0 min 0,000 mm 0,0 UV-I 0 W/m 14,4 C 14,9 C 8,0 km/h (2 Bft) 100,00 %
28.06.2022 04:57 14,9 C 97 % 1019,5 hPa 0,0 l/m 6,4 km/h (2 Bft) N-NW 337 0 min 0,000 mm 0,0 UV-I 0 W/m 14,4 C 14,9 C 11,3 km/h (2 Bft) 100,00 %
28.06.2022 04:56 15,0 C 97 % 1019,5 hPa 0,0 l/m 9,7 km/h (2 Bft) N-NW 337 0 min 0,000 mm 0,0 UV-I 0 W/m 14,5 C 15,0 C 16,1 km/h (3 Bft) 100,00 %
28.06.2022 04:55 15,0 C 98 % 1019,6 hPa 0,0 l/m 8,0 km/h (2 Bft) W-NW 292 0 min 0,000 mm 0,0 UV-I 0 W/m 14,7 C 15,0 C 11,3 km/h (2 Bft) 100,00 %
28.06.2022 04:54 15,1 C 98 % 1019,5 hPa 0,0 l/m 4,8 km/h (1 Bft) W 270 0 min 0,000 mm 0,0 UV-I 0 W/m 14,8 C 15,1 C 6,4 km/h (2 Bft) 95,65 %
28.06.2022 04:53 15,1 C 98 % 1019,6 hPa 0,0 l/m 3,2 km/h (1 Bft) SW 225 0 min 0,000 mm 0,0 UV-I 0 W/m 14,8 C 15,1 C 4,8 km/h (1 Bft) 100,00 %
28.06.2022 04:52 15,1 C 98 % 1019,5 hPa 0,0 l/m 1,6 km/h (1 Bft) W-SW 247 0 min 0,000 mm 0,0 UV-I 0 W/m 14,8 C 15,1 C 3,2 km/h (1 Bft) 100,00 %
28.06.2022 04:51 15,0 C 97 % 1019,6 hPa 0,0 l/m 3,2 km/h (1 Bft) W-SW 247 0 min 0,000 mm 0,0 UV-I 0 W/m 14,5 C 15,0 C 4,8 km/h (1 Bft) 100,00 %
28.06.2022 04:50 15,0 C 98 % 1019,5 hPa 0,0 l/m 1,6 km/h (1 Bft) W-NW 292 0 min 0,000 mm 0,0 UV-I 0 W/m 14,7 C 15,0 C 3,2 km/h (1 Bft) 100,00 %
28.06.2022 04:49 15,0 C 97 % 1019,5 hPa 0,0 l/m 3,2 km/h (1 Bft) W-SW 247 0 min 0,000 mm 0,0 UV-I 0 W/m 14,5 C 15,0 C 6,4 km/h (2 Bft) 100,00 %
28.06.2022 04:48 14,9 C 97 % 1019,5 hPa 0,0 l/m 4,8 km/h (1 Bft) W 270 0 min 0,000 mm 0,0 UV-I 0 W/m 14,4 C 14,9 C 6,4 km/h (2 Bft) 100,00 %
28.06.2022 04:47 14,9 C 97 % 1019,5 hPa 0,0 l/m 4,8 km/h (1 Bft) W-NW 292 0 min 0,000 mm 0,0 UV-I 0 W/m 14,4 C 14,9 C 4,8 km/h (1 Bft) 100,00 %
28.06.2022 04:46 14,9 C 97 % 1019,6 hPa 0,0 l/m 6,4 km/h (2 Bft) NW 315 0 min 0,000 mm 0,0 UV-I 0 W/m 14,4 C 14,9 C 8,0 km/h (2 Bft) 100,00 %
28.06.2022 04:45 14,9 C 97 % 1019,5 hPa 0,0 l/m 8,0 km/h (2 Bft) NW 315 0 min 0,000 mm 0,0 UV-I 0 W/m 14,4 C 14,9 C 11,3 km/h (2 Bft) 100,00 %
28.06.2022 04:44 14,9 C 97 % 1019,5 hPa 0,0 l/m 8,0 km/h (2 Bft) W-NW 292 0 min 0,000 mm 0,0 UV-I 0 W/m 14,4 C 14,9 C 12,9 km/h (3 Bft) 100,00 %
28.06.2022 04:43 14,9 C 97 % 1019,5 hPa 0,0 l/m 6,4 km/h (2 Bft) NW 315 0 min 0,000 mm 0,0 UV-I 0 W/m 14,4 C 14,9 C 12,9 km/h (3 Bft) 100,00 %
28.06.2022 04:42 14,9 C 97 % 1019,5 hPa 0,0 l/m 8,0 km/h (2 Bft) NW 315 0 min 0,000 mm 0,0 UV-I 0 W/m 14,4 C 14,9 C 16,1 km/h (3 Bft) 95,65 %
28.06.2022 04:41 14,9 C 97 % 1019,5 hPa 0,0 l/m 3,2 km/h (1 Bft) NW 315 0 min 0,000 mm 0,0 UV-I 0 W/m 14,4 C 14,9 C 4,8 km/h (1 Bft) 100,00 %
28.06.2022 04:40 15,0 C 97 % 1019,5 hPa 0,0 l/m 1,6 km/h (1 Bft) N 360 0 min 0,000 mm 0,0 UV-I 0 W/m 14,5 C 15,0 C 4,8 km/h (1 Bft) 100,00 %
28.06.2022 04:39 14,9 C 97 % 1019,5 hPa 0,0 l/m 4,8 km/h (1 Bft) N 360 0 min 0,000 mm 0,0 UV-I 0 W/m 14,4 C 14,9 C 6,4 km/h (2 Bft) 100,00 %
28.06.2022 04:38 14,9 C 97 % 1019,6 hPa 0,0 l/m 1,6 km/h (1 Bft) N 360 0 min 0,000 mm 0,0 UV-I 0 W/m 14,4 C 14,9 C 4,8 km/h (1 Bft) 100,00 %
28.06.2022 04:37 14,9 C 97 % 1019,5 hPa 0,0 l/m 4,8 km/h (1 Bft) N 360 0 min 0,000 mm 0,0 UV-I 0 W/m 14,4 C 14,9 C 8,0 km/h (2 Bft) 95,65 %
28.06.2022 04:36 14,9 C 97 % 1019,6 hPa 0,0 l/m 9,7 km/h (2 Bft) NW 315 0 min 0,000 mm 0,0 UV-I 0 W/m 14,4 C 14,9 C 17,7 km/h (3 Bft) 100,00 %
28.06.2022 04:35 15,0 C 97 % 1019,6 hPa 0,0 l/m 8,0 km/h (2 Bft) NW 315 0 min 0,000 mm 0,0 UV-I 0 W/m 14,5 C 15,0 C 14,5 km/h (3 Bft) 100,00 %
28.06.2022 04:34 15,0 C 97 % 1019,6 hPa 0,0 l/m 6,4 km/h (2 Bft) NW 315 0 min 0,000 mm 0,0 UV-I 0 W/m 14,5 C 15,0 C 9,7 km/h (2 Bft) 100,00 %
28.06.2022 04:33 15,0 C 97 % 1019,6 hPa 0,0 l/m 6,4 km/h (2 Bft) NW 315 0 min 0,000 mm 0,0 UV-I 0 W/m 14,5 C 15,0 C 12,9 km/h (3 Bft) 95,65 %
28.06.2022 04:32 15,1 C 97 % 1019,6 hPa 0,0 l/m 6,4 km/h (2 Bft) N-NW 337 0 min 0,000 mm 0,0 UV-I 0 W/m 14,6 C 15,1 C 9,7 km/h (2 Bft) 100,00 %
28.06.2022 04:31 15,1 C 97 % 1019,6 hPa 0,0 l/m 4,8 km/h (1 Bft) N-NW 337 0 min 0,000 mm 0,0 UV-I 0 W/m 14,6 C 15,1 C 8,0 km/h (2 Bft) 100,00 %
28.06.2022 04:30 15,1 C 97 % 1019,6 hPa 0,0 l/m 3,2 km/h (1 Bft) N-NW 337 0 min 0,000 mm 0,0 UV-I 0 W/m 14,6 C 15,1 C 4,8 km/h (1 Bft) 95,65 %
28.06.2022 04:29 15,1 C 97 % 1019,6 hPa 0,0 l/m 6,4 km/h (2 Bft) NW 315 0 min 0,000 mm 0,0 UV-I 0 W/m 14,6 C 15,1 C 12,9 km/h (3 Bft) 100,00 %
28.06.2022 04:28 15,1 C 97 % 1019,6 hPa 0,0 l/m 6,4 km/h (2 Bft) N-NW 337 0 min 0,000 mm 0,0 UV-I 0 W/m 14,6 C 15,1 C 9,7 km/h (2 Bft) 100,00 %
28.06.2022 04:27 15,1 C 97 % 1019,6 hPa 0,0 l/m 4,8 km/h (1 Bft) NW 315 0 min 0,000 mm 0,0 UV-I 0 W/m 14,6 C 15,1 C 8,0 km/h (2 Bft) 100,00 %
28.06.2022 04:26 15,1 C 97 % 1019,6 hPa 0,0 l/m 4,8 km/h (1 Bft) NW 315 0 min 0,000 mm 0,0 UV-I 0 W/m 14,6 C 15,1 C 6,4 km/h (2 Bft) 100,00 %
28.06.2022 04:25 15,0 C 97 % 1019,6 hPa 0,0 l/m 4,8 km/h (1 Bft) NW 315 0 min 0,000 mm 0,0 UV-I 0 W/m 14,5 C 15,0 C 9,7 km/h (2 Bft) 100,00 %
28.06.2022 04:24 15,0 C 97 % 1019,6 hPa 0,0 l/m 6,4 km/h (2 Bft) W-NW 292 0 min 0,000 mm 0,0 UV-I 0 W/m 14,5 C 15,0 C 9,7 km/h (2 Bft) 100,00 %
28.06.2022 04:23 15,0 C 97 % 1019,5 hPa 0,0 l/m 8,0 km/h (2 Bft) W-NW 292 0 min 0,000 mm 0,0 UV-I 0 W/m 14,5 C 15,0 C 11,3 km/h (2 Bft) 95,65 %
28.06.2022 04:22 15,0 C 97 % 1019,6 hPa 0,0 l/m 8,0 km/h (2 Bft) W-NW 292 0 min 0,000 mm 0,0 UV-I 0 W/m 14,5 C 15,0 C 11,3 km/h (2 Bft) 100,00 %
28.06.2022 04:21 15,0 C 97 % 1019,6 hPa 0,0 l/m 6,4 km/h (2 Bft) W-NW 292 0 min 0,000 mm 0,0 UV-I 0 W/m 14,5 C 15,0 C 11,3 km/h (2 Bft) 100,00 %
28.06.2022 04:20 15,0 C 97 % 1019,6 hPa 0,0 l/m 6,4 km/h (2 Bft) NW 315 0 min 0,000 mm 0,0 UV-I 0 W/m 14,5 C 15,0 C 8,0 km/h (2 Bft) 95,65 %
28.06.2022 04:19 15,0 C 97 % 1019,7 hPa 0,0 l/m 8,0 km/h (2 Bft) NW 315 0 min 0,000 mm 0,0 UV-I 0 W/m 14,5 C 15,0 C 11,3 km/h (2 Bft) 100,00 %
28.06.2022 04:18 15,1 C 97 % 1019,6 hPa 0,0 l/m 8,0 km/h (2 Bft) W-NW 292 0 min 0,000 mm 0,0 UV-I 0 W/m 14,6 C 15,1 C 11,3 km/h (2 Bft) 100,00 %
28.06.2022 04:17 15,1 C 97 % 1019,6 hPa 0,0 l/m 6,4 km/h (2 Bft) W-NW 292 0 min 0,000 mm 0,0 UV-I 0 W/m 14,6 C 15,1 C 9,7 km/h (2 Bft) 100,00 %
28.06.2022 04:16 15,0 C 97 % 1019,6 hPa 0,0 l/m 8,0 km/h (2 Bft) W-NW 292 0 min 0,000 mm 0,0 UV-I 0 W/m 14,5 C 15,0 C 9,7 km/h (2 Bft) 95,65 %
28.06.2022 04:15 15,0 C 97 % 1019,7 hPa 0,0 l/m 4,8 km/h (1 Bft) NW 315 0 min 0,000 mm 0,0 UV-I 0 W/m 14,5 C 15,0 C 8,0 km/h (2 Bft) 91,30 %
28.06.2022 04:14 15,0 C 97 % 1019,6 hPa 0,0 l/m 3,2 km/h (1 Bft) W-NW 292 0 min 0,000 mm 0,0 UV-I 0 W/m 14,5 C 15,0 C 4,8 km/h (1 Bft) 100,00 %
28.06.2022 04:13 14,9 C 97 % 1019,7 hPa 0,0 l/m 4,8 km/h (1 Bft) W 270 0 min 0,000 mm 0,0 UV-I 0 W/m 14,4 C 14,9 C 6,4 km/h (2 Bft) 100,00 %
28.06.2022 04:12 14,9 C 97 % 1019,6 hPa 0,0 l/m 1,6 km/h (1 Bft) NW 315 0 min 0,000 mm 0,0 UV-I 0 W/m 14,4 C 14,9 C 6,4 km/h (2 Bft) 100,00 %
28.06.2022 04:11 15,0 C 97 % 1019,6 hPa 0,0 l/m 1,6 km/h (1 Bft) W-NW 292 0 min 0,000 mm 0,0 UV-I 0 W/m 14,5 C 15,0 C 3,2 km/h (1 Bft) 100,00 %
28.06.2022 04:10 15,0 C 97 % 1019,6 hPa 0,0 l/m 3,2 km/h (1 Bft) SW 225 0 min 0,000 mm 0,0 UV-I 0 W/m 14,5 C 15,0 C 6,4 km/h (2 Bft) 100,00 %
28.06.2022 04:09 15,0 C 97 % 1019,6 hPa 0,0 l/m 3,2 km/h (1 Bft) W 270 0 min 0,000 mm 0,0 UV-I 0 W/m 14,5 C 15,0 C 4,8 km/h (1 Bft) 100,00 %
28.06.2022 04:08 15,0 C 97 % 1019,6 hPa 0,0 l/m 3,2 km/h (1 Bft) W-NW 292 0 min 0,000 mm 0,0 UV-I 0 W/m 14,5 C 15,0 C 6,4 km/h (2 Bft) 91,30 %
28.06.2022 04:07 15,0 C 97 % 1019,6 hPa 0,0 l/m 3,2 km/h (1 Bft) W-NW 292 0 min 0,000 mm 0,0 UV-I 0 W/m 14,5 C 15,0 C 4,8 km/h (1 Bft) 100,00 %
28.06.2022 04:06 15,0 C 97 % 1019,5 hPa 0,0 l/m 4,8 km/h (1 Bft) NW 315 0 min 0,000 mm 0,0 UV-I 0 W/m 14,5 C 15,0 C 8,0 km/h (2 Bft) 100,00 %
28.06.2022 04:05 15,0 C 97 % 1019,5 hPa 0,0 l/m 1,6 km/h (1 Bft) W 270 0 min 0,000 mm 0,0 UV-I 0 W/m 14,5 C 15,0 C 3,2 km/h (1 Bft) 100,00 %
28.06.2022 04:04 14,9 C 97 % 1019,5 hPa 0,0 l/m 1,6 km/h (1 Bft) N-NW 337 0 min 0,000 mm 0,0 UV-I 0 W/m 14,4 C 14,9 C 3,2 km/h (1 Bft) 95,65 %
28.06.2022 04:03 15,0 C 97 % 1019,4 hPa 0,0 l/m 0,0 km/h (0 Bft) NO 45 0 min 0,000 mm 0,0 UV-I 0 W/m 14,5 C 15,0 C 1,6 km/h (1 Bft) 100,00 %
28.06.2022 04:02 14,9 C 97 % 1019,5 hPa 0,0 l/m 1,6 km/h (1 Bft) S 180 0 min 0,000 mm 0,0 UV-I 0 W/m 14,4 C 14,9 C 3,2 km/h (1 Bft) 100,00 %
28.06.2022 04:01 15,0 C 97 % 1019,4 hPa 0,0 l/m 1,6 km/h (1 Bft) S-SO 157 0 min 0,000 mm 0,0 UV-I 0 W/m 14,5 C 15,0 C 1,6 km/h (1 Bft) 100,00 %
28.06.2022 04:00 15,0 C 97 % 1019,5 hPa 0,0 l/m 1,6 km/h (1 Bft) S-SO 157 0 min 0,000 mm 0,0 UV-I 0 W/m 14,5 C 15,0 C 4,8 km/h (1 Bft) 100,00 %
28.06.2022 03:59 15,0 C 97 % 1019,4 hPa 0,0 l/m 0,0 km/h (0 Bft) O 90 0 min 0,000 mm 0,0 UV-I 0 W/m 14,5 C 15,0 C 3,2 km/h (1 Bft) 100,00 %
28.06.2022 03:58 15,0 C 97 % 1019,4 hPa 0,0 l/m 0,0 km/h (0 Bft) N 0 0 min 0,000 mm 0,0 UV-I 0 W/m 14,5 C 15,0 C 0,0 km/h (0 Bft) 100,00 %
28.06.2022 03:57 15,0 C 97 % 1019,4 hPa 0,0 l/m 0,0 km/h (0 Bft) N 0 0 min 0,000 mm 0,0 UV-I 0 W/m 14,5 C 15,0 C 0,0 km/h (0 Bft) 100,00 %
28.06.2022 03:56 15,0 C 97 % 1019,4 hPa 0,0 l/m 0,0 km/h (0 Bft) O-SO 112 0 min 0,000 mm 0,0 UV-I 0 W/m 14,5 C 15,0 C 1,6 km/h (1 Bft) 100,00 %
28.06.2022 03:55 15,1 C 97 % 1019,4 hPa 0,0 l/m 1,6 km/h (1 Bft) O-SO 112 0 min 0,000 mm 0,0 UV-I 0 W/m 14,6 C 15,1 C 3,2 km/h (1 Bft) 100,00 %
28.06.2022 03:54 15,0 C 97 % 1019,4 hPa 0,0 l/m 0,0 km/h (0 Bft) O 90 0 min 0,000 mm 0,0 UV-I 0 W/m 14,5 C 15,0 C 1,6 km/h (1 Bft) 91,30 %
28.06.2022 03:53 15,1 C 97 % 1019,4 hPa 0,0 l/m 1,6 km/h (1 Bft) O 90 0 min 0,000 mm 0,0 UV-I 0 W/m 14,6 C 15,1 C 3,2 km/h (1 Bft) 100,00 %
28.06.2022 03:52 15,1 C 97 % 1019,4 hPa 0,0 l/m 3,2 km/h (1 Bft) O-NO 67 0 min 0,000 mm 0,0 UV-I 0 W/m 14,6 C 15,1 C 3,2 km/h (1 Bft) 100,00 %
28.06.2022 03:51 15,1 C 97 % 1019,5 hPa 0,0 l/m 0,0 km/h (0 Bft) O-NO 67 0 min 0,000 mm 0,0 UV-I 0 W/m 14,6 C 15,1 C 3,2 km/h (1 Bft) 100,00 %
28.06.2022 03:50 15,1 C 97 % 1019,4 hPa 0,0 l/m 1,6 km/h (1 Bft) O 90 0 min 0,000 mm 0,0 UV-I 0 W/m 14,6 C 15,1 C 3,2 km/h (1 Bft) 100,00 %
28.06.2022 03:49 15,1 C 97 % 1019,4 hPa 0,0 l/m 1,6 km/h (1 Bft) O 90 0 min 0,000 mm 0,0 UV-I 0 W/m 14,6 C 15,1 C 4,8 km/h (1 Bft) 95,65 %
28.06.2022 03:48 15,1 C 97 % 1019,3 hPa 0,0 l/m 1,6 km/h (1 Bft) O 90 0 min 0,000 mm 0,0 UV-I 0 W/m 14,6 C 15,1 C 3,2 km/h (1 Bft) 100,00 %
28.06.2022 03:47 15,1 C 97 % 1019,3 hPa 0,0 l/m 1,6 km/h (1 Bft) O 90 0 min 0,000 mm 0,0 UV-I 0 W/m 14,6 C 15,1 C 3,2 km/h (1 Bft) 100,00 %
28.06.2022 03:46 15,1 C 96 % 1019,4 hPa 0,0 l/m 3,2 km/h (1 Bft) O 90 0 min 0,000 mm 0,0 UV-I 0 W/m 14,5 C 15,1 C 3,2 km/h (1 Bft) 100,00 %
28.06.2022 03:45 15,1 C 96 % 1019,3 hPa 0,0 l/m 1,6 km/h (1 Bft) O 90 0 min 0,000 mm 0,0 UV-I 0 W/m 14,5 C 15,1 C 3,2 km/h (1 Bft) 100,00 %
28.06.2022 03:44 15,1 C 96 % 1019,4 hPa 0,0 l/m 1,6 km/h (1 Bft) O-NO 67 0 min 0,000 mm 0,0 UV-I 0 W/m 14,5 C 15,1 C 4,8 km/h (1 Bft) 95,65 %
28.06.2022 03:43 15,1 C 96 % 1019,4 hPa 0,0 l/m 3,2 km/h (1 Bft) O-NO 67 0 min 0,000 mm 0,0 UV-I 0 W/m 14,5 C 15,1 C 4,8 km/h (1 Bft) 100,00 %
28.06.2022 03:42 15,1 C 96 % 1019,4 hPa 0,0 l/m 3,2 km/h (1 Bft) NO 45 0 min 0,000 mm 0,0 UV-I 0 W/m 14,5 C 15,1 C 4,8 km/h (1 Bft) 95,65 %
28.06.2022 03:41 15,1 C 97 % 1019,2 hPa 0,0 l/m 3,2 km/h (1 Bft) O-NO 67 0 min 0,000 mm 0,0 UV-I 0 W/m 14,6 C 15,1 C 4,8 km/h (1 Bft) 100,00 %
28.06.2022 03:40 15,2 C 96 % 1019,3 hPa 0,0 l/m 3,2 km/h (1 Bft) NO 45 0 min 0,000 mm 0,0 UV-I 0 W/m 14,6 C 15,2 C 4,8 km/h (1 Bft) 100,00 %
28.06.2022 03:39 15,2 C 96 % 1019,2 hPa 0,0 l/m 3,2 km/h (1 Bft) NO 45 0 min 0,000 mm 0,0 UV-I 0 W/m 14,6 C 15,2 C 3,2 km/h (1 Bft) 100,00 %
28.06.2022 03:38 15,2 C 96 % 1019,2 hPa 0,0 l/m 3,2 km/h (1 Bft) O-NO 67 0 min 0,000 mm 0,0 UV-I 0 W/m 14,6 C 15,2 C 4,8 km/h (1 Bft) 100,00 %
28.06.2022 03:37 15,2 C 96 % 1019,2 hPa 0,0 l/m 4,8 km/h (1 Bft) O-NO 67 0 min 0,000 mm 0,0 UV-I 0 W/m 14,6 C 15,2 C 6,4 km/h (2 Bft) 100,00 %
28.06.2022 03:36 15,2 C 96 % 1019,2 hPa 0,0 l/m 0,0 km/h (0 Bft) O-NO 67 0 min 0,000 mm 0,0 UV-I 0 W/m 14,6 C 15,2 C 4,8 km/h (1 Bft) 100,00 %
28.06.2022 03:35 15,2 C 96 % 1019,2 hPa 0,0 l/m 0,0 km/h (0 Bft) N 0 0 min 0,000 mm 0,0 UV-I 0 W/m 14,6 C 15,2 C 0,0 km/h (0 Bft) 100,00 %
28.06.2022 03:34 15,2 C 96 % 1019,1 hPa 0,0 l/m 0,0 km/h (0 Bft) O-NO 67 0 min 0,000 mm 0,0 UV-I 0 W/m 14,6 C 15,2 C 1,6 km/h (1 Bft) 100,00 %
28.06.2022 03:33 15,2 C 96 % 1019,0 hPa 0,0 l/m 3,2 km/h (1 Bft) O-NO 67 0 min 0,000 mm 0,0 UV-I 0 W/m 14,6 C 15,2 C 3,2 km/h (1 Bft) 100,00 %
28.06.2022 03:32 15,2 C 96 % 1019,2 hPa 0,0 l/m 3,2 km/h (1 Bft) O-NO 67 0 min 0,000 mm 0,0 UV-I 0 W/m 14,6 C 15,2 C 4,8 km/h (1 Bft) 100,00 %
28.06.2022 03:31 15,2 C 96 % 1019,1 hPa 0,0 l/m 3,2 km/h (1 Bft) O 90 0 min 0,000 mm 0,0 UV-I 0 W/m 14,6 C 15,2 C 6,4 km/h (2 Bft) 100,00 %
28.06.2022 03:30 15,2 C 96 % 1019,1 hPa 0,0 l/m 1,6 km/h (1 Bft) O 90 0 min 0,000 mm 0,0 UV-I 0 W/m 14,6 C 15,2 C 3,2 km/h (1 Bft) 100,00 %
28.06.2022 03:29 15,2 C 96 % 1019,2 hPa 0,0 l/m 0,0 km/h (0 Bft) N 0 0 min 0,000 mm 0,0 UV-I 0 W/m 14,6 C 15,2 C 0,0 km/h (0 Bft) 95,65 %
28.06.2022 03:28 15,1 C 95 % 1019,2 hPa 0,0 l/m 1,6 km/h (1 Bft) O 90 0 min 0,000 mm 0,0 UV-I 0 W/m 14,3 C 15,1 C 3,2 km/h (1 Bft) 100,00 %
28.06.2022 03:27 15,1 C 95 % 1019,3 hPa 0,0 l/m 1,6 km/h (1 Bft) O 90 0 min 0,000 mm 0,0 UV-I 0 W/m 14,3 C 15,1 C 4,8 km/h (1 Bft) 100,00 %
28.06.2022 03:26 15,2 C 95 % 1019,2 hPa 0,0 l/m 0,0 km/h (0 Bft) SO 135 0 min 0,000 mm 0,0 UV-I 0 W/m 14,4 C 15,2 C 3,2 km/h (1 Bft) 100,00 %
28.06.2022 03:25 15,2 C 95 % 1019,2 hPa 0,0 l/m 3,2 km/h (1 Bft) O-NO 67 0 min 0,000 mm 0,0 UV-I 0 W/m 14,4 C 15,2 C 6,4 km/h (2 Bft) 100,00 %
28.06.2022 03:24 15,2 C 94 % 1019,2 hPa 0,0 l/m 0,0 km/h (0 Bft) S-SW 202 0 min 0,000 mm 0,0 UV-I 0 W/m 14,2 C 15,2 C 3,2 km/h (1 Bft) 100,00 %
28.06.2022 03:23 15,3 C 94 % 1019,3 hPa 0,0 l/m 0,0 km/h (0 Bft) N 0 0 min 0,000 mm 0,0 UV-I 0 W/m 14,3 C 15,3 C 0,0 km/h (0 Bft) 100,00 %
28.06.2022 03:22 15,3 C 94 % 1019,4 hPa 0,0 l/m 1,6 km/h (1 Bft) N 360 0 min 0,000 mm 0,0 UV-I 0 W/m 14,3 C 15,3 C 4,8 km/h (1 Bft) 100,00 %
28.06.2022 03:21 15,3 C 94 % 1019,2 hPa 0,0 l/m 4,8 km/h (1 Bft) N 360 0 min 0,000 mm 0,0 UV-I 0 W/m 14,3 C 15,3 C 6,4 km/h (2 Bft) 95,65 %
28.06.2022 03:20 15,3 C 94 % 1019,2 hPa 0,0 l/m 4,8 km/h (1 Bft) N 360 0 min 0,000 mm 0,0 UV-I 0 W/m 14,3 C 15,3 C 6,4 km/h (2 Bft) 95,65 %
28.06.2022 03:19 15,2 C 94 % 1019,2 hPa 0,0 l/m 6,4 km/h (2 Bft) NW 315 0 min 0,000 mm 0,0 UV-I 0 W/m 14,2 C 15,2 C 9,7 km/h (2 Bft) 100,00 %
28.06.2022 03:18 15,2 C 95 % 1019,2 hPa 0,0 l/m 9,7 km/h (2 Bft) NW 315 0 min 0,000 mm 0,0 UV-I 0 W/m 14,4 C 15,2 C 12,9 km/h (3 Bft) 100,00 %
28.06.2022 03:17 15,1 C 95 % 1019,1 hPa 0,0 l/m 11,3 km/h (2 Bft) N-NW 337 0 min 0,000 mm 0,0 UV-I 0 W/m 14,3 C 15,1 C 14,5 km/h (3 Bft) 95,65 %
28.06.2022 03:16 15,1 C 96 % 1019,1 hPa 0,0 l/m 9,7 km/h (2 Bft) NW 315 0 min 0,000 mm 0,0 UV-I 0 W/m 14,5 C 15,1 C 12,9 km/h (3 Bft) 100,00 %
28.06.2022 03:15 15,1 C 96 % 1019,0 hPa 0,0 l/m 3,2 km/h (1 Bft) W-NW 292 0 min 0,000 mm 0,0 UV-I 0 W/m 14,5 C 15,1 C 8,0 km/h (2 Bft) 100,00 %
28.06.2022 03:14 15,0 C 96 % 1018,9 hPa 0,0 l/m 4,8 km/h (1 Bft) N-NW 337 0 min 0,000 mm 0,0 UV-I 0 W/m 14,4 C 15,0 C 9,7 km/h (2 Bft) 100,00 %
28.06.2022 03:13 15,1 C 96 % 1018,8 hPa 0,0 l/m 4,8 km/h (1 Bft) N-NW 337 0 min 0,000 mm 0,0 UV-I 0 W/m 14,5 C 15,1 C 6,4 km/h (2 Bft) 100,00 %
28.06.2022 03:12 15,1 C 95 % 1018,8 hPa 0,0 l/m 1,6 km/h (1 Bft) N-NO 22 0 min 0,000 mm 0,0 UV-I 0 W/m 14,3 C 15,1 C 3,2 km/h (1 Bft) 100,00 %
28.06.2022 03:11 15,1 C 95 % 1018,8 hPa 0,0 l/m 0,0 km/h (0 Bft) N 0 0 min 0,000 mm 0,0 UV-I 0 W/m 14,3 C 15,1 C 0,0 km/h (0 Bft) 100,00 %
28.06.2022 03:10 15,2 C 95 % 1018,8 hPa 0,0 l/m 1,6 km/h (1 Bft) NO 45 0 min 0,000 mm 0,0 UV-I 0 W/m 14,4 C 15,2 C 3,2 km/h (1 Bft) 100,00 %
28.06.2022 03:09 15,2 C 95 % 1018,7 hPa 0,0 l/m 1,6 km/h (1 Bft) NO 45 0 min 0,000 mm 0,0 UV-I 0 W/m 14,4 C 15,2 C 3,2 km/h (1 Bft) 100,00 %
28.06.2022 03:08 15,3 C 95 % 1018,7 hPa 0,0 l/m 1,6 km/h (1 Bft) NO 45 0 min 0,000 mm 0,0 UV-I 0 W/m 14,5 C 15,3 C 3,2 km/h (1 Bft) 95,65 %
28.06.2022 03:07 15,3 C 95 % 1018,7 hPa 0,0 l/m 1,6 km/h (1 Bft) NO 45 0 min 0,000 mm 0,0 UV-I 0 W/m 14,5 C 15,3 C 3,2 km/h (1 Bft) 100,00 %
28.06.2022 03:06 15,3 C 94 % 1018,6 hPa 0,0 l/m 1,6 km/h (1 Bft) NO 45 0 min 0,000 mm 0,0 UV-I 0 W/m 14,3 C 15,3 C 3,2 km/h (1 Bft) 95,65 %
28.06.2022 03:05 15,3 C 94 % 1018,5 hPa 0,0 l/m 3,2 km/h (1 Bft) O-NO 67 0 min 0,000 mm 0,0 UV-I 0 W/m 14,3 C 15,3 C 4,8 km/h (1 Bft) 100,00 %
28.06.2022 03:04 15,3 C 94 % 1018,5 hPa 0,0 l/m 0,0 km/h (0 Bft) N 0 0 min 0,000 mm 0,0 UV-I 0 W/m 14,3 C 15,3 C 0,0 km/h (0 Bft) 100,00 %
28.06.2022 03:03 15,3 C 95 % 1018,5 hPa 0,0 l/m 0,0 km/h (0 Bft) W-SW 247 0 min 0,000 mm 0,0 UV-I 0 W/m 14,5 C 15,3 C 1,6 km/h (1 Bft) 91,30 %
28.06.2022 03:02 15,3 C 95 % 1018,4 hPa 0,0 l/m 1,6 km/h (1 Bft) W-SW 247 0 min 0,000 mm 0,0 UV-I 0 W/m 14,5 C 15,3 C 3,2 km/h (1 Bft) 100,00 %
28.06.2022 03:01 15,3 C 95 % 1018,3 hPa 0,0 l/m 1,6 km/h (1 Bft) W-SW 247 0 min 0,000 mm 0,0 UV-I 0 W/m 14,5 C 15,3 C 3,2 km/h (1 Bft) 95,65 %
28.06.2022 03:00 15,2 C 95 % 1018,3 hPa 0,0 l/m 3,2 km/h (1 Bft) W-SW 247 0 min 0,000 mm 0,0 UV-I 0 W/m 14,4 C 15,2 C 4,8 km/h (1 Bft) 100,00 %
28.06.2022 02:59 15,2 C 95 % 1018,2 hPa 0,0 l/m 4,8 km/h (1 Bft) W-SW 247 0 min 0,000 mm 0,0 UV-I 0 W/m 14,4 C 15,2 C 6,4 km/h (2 Bft) 95,65 %
28.06.2022 02:58 15,2 C 95 % 1018,2 hPa 0,0 l/m 4,8 km/h (1 Bft) W 270 0 min 0,000 mm 0,0 UV-I 0 W/m 14,4 C 15,2 C 6,4 km/h (2 Bft) 100,00 %
28.06.2022 02:57 15,2 C 95 % 1018,0 hPa 0,0 l/m 4,8 km/h (1 Bft) W-SW 247 0 min 0,000 mm 0,0 UV-I 0 W/m 14,4 C 15,2 C 9,7 km/h (2 Bft) 100,00 %
28.06.2022 02:56 15,2 C 95 % 1018,0 hPa 0,0 l/m 6,4 km/h (2 Bft) W 270 0 min 0,000 mm 0,0 UV-I 0 W/m 14,4 C 15,2 C 9,7 km/h (2 Bft) 95,65 %
28.06.2022 02:55 15,2 C 95 % 1017,8 hPa 0,0 l/m 8,0 km/h (2 Bft) W 270 0 min 0,000 mm 0,0 UV-I 0 W/m 14,4 C 15,2 C 11,3 km/h (2 Bft) 100,00 %
28.06.2022 02:54 15,2 C 95 % 1017,7 hPa 0,0 l/m 11,3 km/h (2 Bft) W-SW 247 0 min 0,000 mm 0,0 UV-I 0 W/m 14,4 C 15,2 C 14,5 km/h (3 Bft) 100,00 %
28.06.2022 02:53 15,2 C 95 % 1017,6 hPa 0,0 l/m 8,0 km/h (2 Bft) W-SW 247 0 min 0,000 mm 0,0 UV-I 0 W/m 14,4 C 15,2 C 11,3 km/h (2 Bft) 95,65 %
28.06.2022 02:52 15,2 C 95 % 1017,6 hPa 0,0 l/m 9,7 km/h (2 Bft) W-SW 247 0 min 0,000 mm 0,0 UV-I 0 W/m 14,4 C 15,2 C 14,5 km/h (3 Bft) 91,30 %
28.06.2022 02:51 15,2 C 95 % 1017,6 hPa 0,0 l/m 8,0 km/h (2 Bft) SW 225 0 min 0,000 mm 0,0 UV-I 0 W/m 14,4 C 15,2 C 12,9 km/h (3 Bft) 100,00 %
28.06.2022 02:50 15,2 C 95 % 1017,5 hPa 0,0 l/m 11,3 km/h (2 Bft) SW 225 0 min 0,000 mm 0,0 UV-I 0 W/m 14,4 C 15,2 C 16,1 km/h (3 Bft) 100,00 %
28.06.2022 02:49 15,3 C 95 % 1017,4 hPa 0,0 l/m 11,3 km/h (2 Bft) SW 225 0 min 0,000 mm 0,0 UV-I 0 W/m 14,5 C 15,3 C 14,5 km/h (3 Bft) 100,00 %
28.06.2022 02:48 15,3 C 95 % 1017,4 hPa 0,0 l/m 11,3 km/h (2 Bft) SW 225 0 min 0,000 mm 0,0 UV-I 0 W/m 14,5 C 15,3 C 14,5 km/h (3 Bft) 100,00 %
28.06.2022 02:47 15,3 C 95 % 1017,3 hPa 0,0 l/m 11,3 km/h (2 Bft) SW 225 0 min 0,000 mm 0,0 UV-I 0 W/m 14,5 C 15,3 C 16,1 km/h (3 Bft) 91,30 %
28.06.2022 02:46 15,3 C 95 % 1017,2 hPa 0,0 l/m 12,9 km/h (3 Bft) SW 225 0 min 0,000 mm 0,0 UV-I 0 W/m 14,5 C 15,3 C 17,7 km/h (3 Bft) 86,96 %
28.06.2022 02:45 15,3 C 95 % 1017,2 hPa 0,0 l/m 12,9 km/h (3 Bft) SW 225 0 min 0,000 mm 0,0 UV-I 0 W/m 14,5 C 15,3 C 20,9 km/h (4 Bft) 100,00 %
28.06.2022 02:44 15,3 C 95 % 1017,2 hPa 0,0 l/m 11,3 km/h (2 Bft) SW 225 0 min 0,000 mm 0,0 UV-I 0 W/m 14,5 C 15,3 C 14,5 km/h (3 Bft) 95,65 %
28.06.2022 02:43 15,3 C 95 % 1017,3 hPa 0,0 l/m 14,5 km/h (3 Bft) S-SW 202 0 min 0,000 mm 0,0 UV-I 0 W/m 14,5 C 15,3 C 20,9 km/h (4 Bft) 100,00 %
28.06.2022 02:42 15,2 C 96 % 1017,3 hPa 0,0 l/m 14,5 km/h (3 Bft) S-SW 202 0 min 0,000 mm 0,0 UV-I 0 W/m 14,6 C 15,2 C 19,3 km/h (3 Bft) 95,65 %
28.06.2022 02:41 15,2 C 96 % 1017,3 hPa 0,0 l/m 14,5 km/h (3 Bft) S-SW 202 0 min 0,000 mm 0,0 UV-I 0 W/m 14,6 C 15,2 C 19,3 km/h (3 Bft) 91,30 %
28.06.2022 02:40 15,2 C 96 % 1017,4 hPa 0,0 l/m 12,9 km/h (3 Bft) S-SW 202 0 min 0,000 mm 0,0 UV-I 0 W/m 14,6 C 15,2 C 16,1 km/h (3 Bft) 100,00 %
28.06.2022 02:39 15,2 C 96 % 1017,3 hPa 0,0 l/m 14,5 km/h (3 Bft) S-SW 202 0 min 0,000 mm 0,0 UV-I 0 W/m 14,6 C 15,2 C 20,9 km/h (4 Bft) 100,00 %
28.06.2022 02:38 15,2 C 96 % 1017,4 hPa 0,0 l/m 12,9 km/h (3 Bft) S-SW 202 0 min 0,000 mm 0,0 UV-I 0 W/m 14,6 C 15,2 C 19,3 km/h (3 Bft) 95,65 %
28.06.2022 02:37 15,2 C 96 % 1017,5 hPa 0,0 l/m 14,5 km/h (3 Bft) S-SW 202 0 min 0,000 mm 0,0 UV-I 0 W/m 14,6 C 15,2 C 17,7 km/h (3 Bft) 78,26 %
28.06.2022 02:36 15,1 C 96 % 1017,6 hPa 0,0 l/m 12,9 km/h (3 Bft) S-SW 202 0 min 0,000 mm 0,0 UV-I 0 W/m 14,5 C 15,1 C 17,7 km/h (3 Bft) 100,00 %
28.06.2022 02:35 15,1 C 96 % 1017,5 hPa 0,0 l/m 12,9 km/h (3 Bft) S-SW 202 0 min 0,000 mm 0,0 UV-I 0 W/m 14,5 C 15,1 C 19,3 km/h (3 Bft) 100,00 %
28.06.2022 02:34 15,1 C 96 % 1017,5 hPa 0,0 l/m 14,5 km/h (3 Bft) S-SW 202 0 min 0,000 mm 0,0 UV-I 0 W/m 14,5 C 15,1 C 19,3 km/h (3 Bft) 100,00 %
28.06.2022 02:33 15,1 C 96 % 1017,5 hPa 0,0 l/m 14,5 km/h (3 Bft) SW 225 0 min 0,000 mm 0,0 UV-I 0 W/m 14,5 C 15,1 C 19,3 km/h (3 Bft) 100,00 %
28.06.2022 02:32 15,1 C 96 % 1017,5 hPa 0,0 l/m 14,5 km/h (3 Bft) S-SW 202 0 min 0,000 mm 0,0 UV-I 0 W/m 14,5 C 15,1 C 20,9 km/h (4 Bft) 100,00 %
28.06.2022 02:31 15,1 C 97 % 1017,5 hPa 0,0 l/m 16,1 km/h (3 Bft) S-SW 202 0 min 0,000 mm 0,0 UV-I 0 W/m 14,6 C 15,1 C 19,3 km/h (3 Bft) 95,65 %
28.06.2022 02:30 15,1 C 97 % 1017,5 hPa 0,0 l/m 14,5 km/h (3 Bft) S-SW 202 0 min 0,000 mm 0,0 UV-I 0 W/m 14,6 C 15,1 C 19,3 km/h (3 Bft) 100,00 %
28.06.2022 02:29 15,1 C 97 % 1017,5 hPa 0,0 l/m 12,9 km/h (3 Bft) S-SW 202 0 min 0,000 mm 0,0 UV-I 0 W/m 14,6 C 15,1 C 16,1 km/h (3 Bft) 95,65 %
28.06.2022 02:28 15,1 C 97 % 1017,6 hPa 0,0 l/m 14,5 km/h (3 Bft) S-SW 202 0 min 0,000 mm 0,0 UV-I 0 W/m 14,6 C 15,1 C 17,7 km/h (3 Bft) 100,00 %
28.06.2022 02:27 15,1 C 97 % 1017,7 hPa 0,0 l/m 12,9 km/h (3 Bft) S-SW 202 0 min 0,000 mm 0,0 UV-I 0 W/m 14,6 C 15,1 C 19,3 km/h (3 Bft) 100,00 %
28.06.2022 02:26 15,1 C 97 % 1017,7 hPa 0,0 l/m 11,3 km/h (2 Bft) S-SW 202 0 min 0,000 mm 0,0 UV-I 0 W/m 14,6 C 15,1 C 14,5 km/h (3 Bft) 100,00 %
28.06.2022 02:25 15,1 C 97 % 1017,8 hPa 0,0 l/m 9,7 km/h (2 Bft) S-SW 202 0 min 0,000 mm 0,0 UV-I 0 W/m 14,6 C 15,1 C 12,9 km/h (3 Bft) 100,00 %
28.06.2022 02:24 15,1 C 97 % 1017,8 hPa 0,0 l/m 8,0 km/h (2 Bft) SW 225 0 min 0,000 mm 0,0 UV-I 0 W/m 14,6 C 15,1 C 11,3 km/h (2 Bft) 95,65 %
28.06.2022 02:23 15,1 C 97 % 1017,8 hPa 0,0 l/m 9,7 km/h (2 Bft) S-SW 202 0 min 0,000 mm 0,0 UV-I 0 W/m 14,6 C 15,1 C 12,9 km/h (3 Bft) 100,00 %
28.06.2022 02:22 15,1 C 97 % 1017,8 hPa 0,0 l/m 11,3 km/h (2 Bft) S-SW 202 0 min 0,000 mm 0,0 UV-I 0 W/m 14,6 C 15,1 C 14,5 km/h (3 Bft) 100,00 %
28.06.2022 02:21 15,1 C 97 % 1017,8 hPa 0,0 l/m 6,4 km/h (2 Bft) S-SW 202 0 min 0,000 mm 0,0 UV-I 0 W/m 14,6 C 15,1 C 11,3 km/h (2 Bft) 100,00 %
28.06.2022 02:20 15,1 C 97 % 1017,8 hPa 0,0 l/m 8,0 km/h (2 Bft) S-SW 202 0 min 0,000 mm 0,0 UV-I 0 W/m 14,6 C 15,1 C 11,3 km/h (2 Bft) 91,30 %
28.06.2022 02:19 15,1 C 97 % 1017,8 hPa 0,0 l/m 8,0 km/h (2 Bft) S 180 0 min 0,000 mm 0,0 UV-I 0 W/m 14,6 C 15,1 C 9,7 km/h (2 Bft) 100,00 %
28.06.2022 02:18 15,1 C 97 % 1017,8 hPa 0,0 l/m 8,0 km/h (2 Bft) S-SW 202 0 min 0,000 mm 0,0 UV-I 0 W/m 14,6 C 15,1 C 12,9 km/h (3 Bft) 100,00 %
28.06.2022 02:17 15,1 C 97 % 1017,9 hPa 0,0 l/m 11,3 km/h (2 Bft) S-SW 202 0 min 0,000 mm 0,0 UV-I 0 W/m 14,6 C 15,1 C 16,1 km/h (3 Bft) 100,00 %
28.06.2022 02:16 15,1 C 97 % 1017,9 hPa 0,0 l/m 11,3 km/h (2 Bft) S 180 0 min 0,000 mm 0,0 UV-I 0 W/m 14,6 C 15,1 C 14,5 km/h (3 Bft) 100,00 %
28.06.2022 02:15 15,1 C 97 % 1017,9 hPa 0,0 l/m 9,7 km/h (2 Bft) S-SW 202 0 min 0,000 mm 0,0 UV-I 0 W/m 14,6 C 15,1 C 12,9 km/h (3 Bft) 95,65 %
28.06.2022 02:14 15,1 C 97 % 1017,9 hPa 0,0 l/m 8,0 km/h (2 Bft) SW 225 0 min 0,000 mm 0,0 UV-I 0 W/m 14,6 C 15,1 C 14,5 km/h (3 Bft) 100,00 %
28.06.2022 02:13 15,2 C 97 % 1017,9 hPa 0,0 l/m 11,3 km/h (2 Bft) S-SW 202 0 min 0,000 mm 0,0 UV-I 0 W/m 14,7 C 15,2 C 14,5 km/h (3 Bft) 100,00 %
28.06.2022 02:12 15,2 C 97 % 1017,8 hPa 0,0 l/m 11,3 km/h (2 Bft) S-SW 202 0 min 0,000 mm 0,0 UV-I 0 W/m 14,7 C 15,2 C 16,1 km/h (3 Bft) 95,65 %
28.06.2022 02:11 15,2 C 97 % 1017,8 hPa 0,0 l/m 12,9 km/h (3 Bft) S-SW 202 0 min 0,000 mm 0,0 UV-I 0 W/m 14,7 C 15,2 C 17,7 km/h (3 Bft) 100,00 %
28.06.2022 02:10 15,2 C 97 % 1017,8 hPa 0,0 l/m 8,0 km/h (2 Bft) S-SW 202 0 min 0,000 mm 0,0 UV-I 0 W/m 14,7 C 15,2 C 11,3 km/h (2 Bft) 100,00 %
28.06.2022 02:09 15,2 C 97 % 1017,9 hPa 0,0 l/m 11,3 km/h (2 Bft) S-SO 157 0 min 0,000 mm 0,0 UV-I 0 W/m 14,7 C 15,2 C 16,1 km/h (3 Bft) 100,00 %
28.06.2022 02:08 15,2 C 97 % 1018,0 hPa 0,0 l/m 9,7 km/h (2 Bft) S-SW 202 0 min 0,000 mm 0,0 UV-I 0 W/m 14,7 C 15,2 C 11,3 km/h (2 Bft) 100,00 %
28.06.2022 02:07 15,2 C 97 % 1018,2 hPa 0,0 l/m 6,4 km/h (2 Bft) S-SW 202 0 min 0,000 mm 0,0 UV-I 0 W/m 14,7 C 15,2 C 11,3 km/h (2 Bft) 100,00 %
28.06.2022 02:06 15,2 C 97 % 1018,2 hPa 0,0 l/m 9,7 km/h (2 Bft) S-SW 202 0 min 0,000 mm 0,0 UV-I 0 W/m 14,7 C 15,2 C 12,9 km/h (3 Bft) 100,00 %
28.06.2022 02:05 15,2 C 97 % 1018,3 hPa 0,0 l/m 6,4 km/h (2 Bft) SW 225 0 min 0,000 mm 0,0 UV-I 0 W/m 14,7 C 15,2 C 8,0 km/h (2 Bft) 100,00 %
28.06.2022 02:04 15,2 C 97 % 1018,3 hPa 0,0 l/m 6,4 km/h (2 Bft) W-SW 247 0 min 0,000 mm 0,0 UV-I 0 W/m 14,7 C 15,2 C 8,0 km/h (2 Bft) 100,00 %
28.06.2022 02:03 15,2 C 97 % 1018,2 hPa 0,0 l/m 4,8 km/h (1 Bft) W-SW 247 0 min 0,000 mm 0,0 UV-I 0 W/m 14,7 C 15,2 C 6,4 km/h (2 Bft) 100,00 %
28.06.2022 02:02 15,2 C 97 % 1018,0 hPa 0,0 l/m 3,2 km/h (1 Bft) S 180 0 min 0,000 mm 0,0 UV-I 0 W/m 14,7 C 15,2 C 4,8 km/h (1 Bft) 100,00 %
28.06.2022 02:01 15,2 C 97 % 1018,0 hPa 0,0 l/m 3,2 km/h (1 Bft) S-SO 157 0 min 0,000 mm 0,0 UV-I 0 W/m 14,7 C 15,2 C 4,8 km/h (1 Bft) 100,00 %
28.06.2022 02:00 15,2 C 97 % 1018,2 hPa 0,0 l/m 1,6 km/h (1 Bft) SO 135 0 min 0,000 mm 0,0 UV-I 0 W/m 14,7 C 15,2 C 4,8 km/h (1 Bft) 100,00 %
28.06.2022 01:59 15,2 C 97 % 1018,4 hPa 0,0 l/m 0,0 km/h (0 Bft) N 0 0 min 0,000 mm 0,0 UV-I 0 W/m 14,7 C 15,2 C 0,0 km/h (0 Bft) 100,00 %
28.06.2022 01:58 15,2 C 97 % 1018,4 hPa 0,0 l/m 0,0 km/h (0 Bft) N 0 0 min 0,000 mm 0,0 UV-I 0 W/m 14,7 C 15,2 C 0,0 km/h (0 Bft) 95,65 %
28.06.2022 01:57 15,2 C 97 % 1018,5 hPa 0,0 l/m 0,0 km/h (0 Bft) N 0 0 min 0,000 mm 0,0 UV-I 0 W/m 14,7 C 15,2 C 0,0 km/h (0 Bft) 100,00 %
28.06.2022 01:56 15,2 C 97 % 1018,4 hPa 0,0 l/m 1,6 km/h (1 Bft) SO 135 0 min 0,000 mm 0,0 UV-I 0 W/m 14,7 C 15,2 C 3,2 km/h (1 Bft) 100,00 %
28.06.2022 01:55 15,2 C 97 % 1018,5 hPa 0,0 l/m 1,6 km/h (1 Bft) N-NO 22 0 min 0,000 mm 0,0 UV-I 0 W/m 14,7 C 15,2 C 3,2 km/h (1 Bft) 100,00 %
28.06.2022 01:54 15,2 C 97 % 1018,5 hPa 0,0 l/m 1,6 km/h (1 Bft) N-NO 22 0 min 0,000 mm 0,0 UV-I 0 W/m 14,7 C 15,2 C 1,6 km/h (1 Bft) 100,00 %
28.06.2022 01:53 15,3 C 97 % 1018,5 hPa 0,0 l/m 0,0 km/h (0 Bft) N-NO 22 0 min 0,000 mm 0,0 UV-I 0 W/m 14,8 C 15,3 C 3,2 km/h (1 Bft) 95,65 %
28.06.2022 01:52 15,3 C 96 % 1018,4 hPa 0,2 l/m 0,0 km/h (0 Bft) O-NO 67 0 min 0,000 mm 0,0 UV-I 0 W/m 14,7 C 15,3 C 1,6 km/h (1 Bft) 100,00 %
28.06.2022 01:51 15,3 C 96 % 1018,4 hPa 0,0 l/m 3,2 km/h (1 Bft) O-NO 67 0 min 0,000 mm 0,0 UV-I 0 W/m 14,7 C 15,3 C 8,0 km/h (2 Bft) 100,00 %
28.06.2022 01:50 15,3 C 96 % 1018,6 hPa 0,0 l/m 8,0 km/h (2 Bft) O 90 0 min 0,000 mm 0,0 UV-I 0 W/m 14,7 C 15,3 C 12,9 km/h (3 Bft) 100,00 %
28.06.2022 01:49 15,3 C 96 % 1018,7 hPa 0,0 l/m 4,8 km/h (1 Bft) O 90 0 min 0,000 mm 0,0 UV-I 0 W/m 14,7 C 15,3 C 9,7 km/h (2 Bft) 100,00 %
28.06.2022 01:48 15,3 C 96 % 1019,0 hPa 0,2 l/m 3,2 km/h (1 Bft) S 180 0 min 0,000 mm 0,0 UV-I 0 W/m 14,7 C 15,3 C 8,0 km/h (2 Bft) 100,00 %
28.06.2022 01:47 15,4 C 96 % 1019,3 hPa 0,0 l/m 6,4 km/h (2 Bft) S 180 0 min 0,000 mm 0,0 UV-I 0 W/m 14,8 C 15,4 C 8,0 km/h (2 Bft) 100,00 %
28.06.2022 01:46 15,4 C 96 % 1019,4 hPa 0,0 l/m 4,8 km/h (1 Bft) S 180 0 min 0,000 mm 0,0 UV-I 0 W/m 14,8 C 15,4 C 6,4 km/h (2 Bft) 100,00 %
28.06.2022 01:45 15,4 C 96 % 1019,6 hPa 0,0 l/m 4,8 km/h (1 Bft) S-SO 157 0 min 0,000 mm 0,0 UV-I 0 W/m 14,8 C 15,4 C 8,0 km/h (2 Bft) 100,00 %
28.06.2022 01:44 15,4 C 96 % 1019,8 hPa 0,0 l/m 4,8 km/h (1 Bft) S-SW 202 0 min 0,000 mm 0,0 UV-I 0 W/m 14,8 C 15,4 C 8,0 km/h (2 Bft) 95,65 %
28.06.2022 01:43 15,4 C 96 % 1020,1 hPa 0,0 l/m 4,8 km/h (1 Bft) S-SW 202 0 min 0,000 mm 0,0 UV-I 0 W/m 14,8 C 15,4 C 6,4 km/h (2 Bft) 100,00 %
28.06.2022 01:42 15,4 C 96 % 1020,2 hPa 0,0 l/m 4,8 km/h (1 Bft) SW 225 0 min 0,000 mm 0,0 UV-I 0 W/m 14,8 C 15,4 C 9,7 km/h (2 Bft) 95,65 %
28.06.2022 01:41 15,4 C 96 % 1020,3 hPa 0,0 l/m 8,0 km/h (2 Bft) W-SW 247 0 min 0,000 mm 0,0 UV-I 0 W/m 14,8 C 15,4 C 12,9 km/h (3 Bft) 100,00 %
28.06.2022 01:40 15,4 C 96 % 1020,3 hPa 0,0 l/m 9,7 km/h (2 Bft) SW 225 0 min 0,000 mm 0,0 UV-I 0 W/m 14,8 C 15,4 C 16,1 km/h (3 Bft) 100,00 %
28.06.2022 01:39 15,5 C 96 % 1020,3 hPa 0,0 l/m 4,8 km/h (1 Bft) W 270 0 min 0,000 mm 0,0 UV-I 0 W/m 14,9 C 15,5 C 11,3 km/h (2 Bft) 100,00 %
28.06.2022 01:38 15,6 C 96 % 1020,4 hPa 0,0 l/m 6,4 km/h (2 Bft) SW 225 0 min 0,000 mm 0,0 UV-I 0 W/m 15,0 C 15,6 C 11,3 km/h (2 Bft) 100,00 %
28.06.2022 01:37 15,6 C 96 % 1020,4 hPa 0,0 l/m 11,3 km/h (2 Bft) W-NW 292 0 min 0,000 mm 0,0 UV-I 0 W/m 15,0 C 15,6 C 20,9 km/h (4 Bft) 86,96 %
28.06.2022 01:36 15,6 C 96 % 1020,6 hPa 0,0 l/m 4,8 km/h (1 Bft) W-NW 292 0 min 0,000 mm 0,0 UV-I 0 W/m 15,0 C 15,6 C 6,4 km/h (2 Bft) 95,65 %
28.06.2022 01:35 15,6 C 96 % 1020,7 hPa 0,0 l/m 9,7 km/h (2 Bft) W 270 0 min 0,000 mm 0,0 UV-I 0 W/m 15,0 C 15,6 C 14,5 km/h (3 Bft) 100,00 %
28.06.2022 01:34 15,6 C 96 % 1020,6 hPa 0,0 l/m 9,7 km/h (2 Bft) W 270 0 min 0,000 mm 0,0 UV-I 0 W/m 15,0 C 15,6 C 12,9 km/h (3 Bft) 91,30 %
28.06.2022 01:33 15,6 C 96 % 1020,7 hPa 0,0 l/m 11,3 km/h (2 Bft) W-NW 292 0 min 0,000 mm 0,0 UV-I 0 W/m 15,0 C 15,6 C 17,7 km/h (3 Bft) 91,30 %
28.06.2022 01:32 15,6 C 96 % 1020,7 hPa 0,2 l/m 12,9 km/h (3 Bft) NW 315 0 min 0,000 mm 0,0 UV-I 0 W/m 15,0 C 15,6 C 20,9 km/h (4 Bft) 91,30 %
28.06.2022 01:31 15,7 C 96 % 1020,5 hPa 0,0 l/m 14,5 km/h (3 Bft) W 270 0 min 0,000 mm 0,0 UV-I 0 W/m 15,1 C 15,7 C 24,1 km/h (4 Bft) 91,30 %
28.06.2022 01:30 15,6 C 96 % 1020,5 hPa 0,0 l/m 16,1 km/h (3 Bft) W-SW 247 0 min 0,000 mm 0,0 UV-I 0 W/m 15,0 C 15,6 C 22,5 km/h (4 Bft) 100,00 %
28.06.2022 01:29 15,7 C 96 % 1020,5 hPa 0,0 l/m 14,5 km/h (3 Bft) W 270 0 min 0,000 mm 0,0 UV-I 0 W/m 15,1 C 15,7 C 24,1 km/h (4 Bft) 100,00 %
28.06.2022 01:28 15,7 C 96 % 1020,5 hPa 0,0 l/m 17,7 km/h (3 Bft) NW 315 0 min 0,000 mm 0,0 UV-I 0 W/m 15,1 C 15,7 C 25,7 km/h (4 Bft) 100,00 %
28.06.2022 01:27 15,7 C 96 % 1020,5 hPa 0,2 l/m 19,3 km/h (3 Bft) W 270 0 min 0,000 mm 0,0 UV-I 0 W/m 15,1 C 15,7 C 25,7 km/h (4 Bft) 95,65 %
28.06.2022 01:26 15,7 C 96 % 1020,5 hPa 0,0 l/m 14,5 km/h (3 Bft) W-NW 292 0 min 0,000 mm 0,0 UV-I 0 W/m 15,1 C 15,7 C 24,1 km/h (4 Bft) 95,65 %
28.06.2022 01:25 15,7 C 96 % 1020,3 hPa 0,0 l/m 16,1 km/h (3 Bft) W 270 0 min 0,000 mm 0,0 UV-I 0 W/m 15,1 C 15,7 C 22,5 km/h (4 Bft) 95,65 %
28.06.2022 01:24 15,8 C 96 % 1020,3 hPa 0,2 l/m 8,0 km/h (2 Bft) W 270 0 min 0,000 mm 0,0 UV-I 0 W/m 15,2 C 15,8 C 14,5 km/h (3 Bft) 100,00 %
28.06.2022 01:23 15,8 C 96 % 1020,1 hPa 0,0 l/m 4,8 km/h (1 Bft) W-NW 292 0 min 0,000 mm 0,0 UV-I 0 W/m 15,2 C 15,8 C 14,5 km/h (3 Bft) 100,00 %
28.06.2022 01:22 15,8 C 96 % 1020,0 hPa 0,0 l/m 3,2 km/h (1 Bft) N-NW 337 0 min 0,000 mm 0,0 UV-I 0 W/m 15,2 C 15,8 C 4,8 km/h (1 Bft) 100,00 %
28.06.2022 01:21 15,8 C 96 % 1020,0 hPa 0,0 l/m 1,6 km/h (1 Bft) W-SW 247 0 min 0,000 mm 0,0 UV-I 0 W/m 15,2 C 15,8 C 4,8 km/h (1 Bft) 100,00 %
28.06.2022 01:20 15,8 C 96 % 1020,0 hPa 0,2 l/m 1,6 km/h (1 Bft) N-NO 22 0 min 0,000 mm 0,0 UV-I 0 W/m 15,2 C 15,8 C 3,2 km/h (1 Bft) 95,65 %
28.06.2022 01:19 15,8 C 95 % 1020,1 hPa 0,0 l/m 11,3 km/h (2 Bft) N-NO 22 0 min 0,000 mm 0,0 UV-I 0 W/m 15,0 C 15,8 C 14,5 km/h (3 Bft) 95,65 %
28.06.2022 01:18 15,8 C 96 % 1019,8 hPa 0,2 l/m 9,7 km/h (2 Bft) NW 315 0 min 0,000 mm 0,0 UV-I 0 W/m 15,2 C 15,8 C 14,5 km/h (3 Bft) 100,00 %
28.06.2022 01:17 15,8 C 95 % 1019,8 hPa 0,2 l/m 3,2 km/h (1 Bft) N-NO 22 0 min 0,000 mm 0,0 UV-I 0 W/m 15,0 C 15,8 C 4,8 km/h (1 Bft) 100,00 %
28.06.2022 01:16 15,8 C 95 % 1019,6 hPa 0,2 l/m 4,8 km/h (1 Bft) N-NO 22 0 min 0,000 mm 0,0 UV-I 0 W/m 15,0 C 15,8 C 6,4 km/h (2 Bft) 100,00 %
28.06.2022 01:15 15,9 C 95 % 1019,8 hPa 0,4 l/m 3,2 km/h (1 Bft) N 360 0 min 0,000 mm 0,0 UV-I 0 W/m 15,1 C 15,9 C 6,4 km/h (2 Bft) 95,65 %
28.06.2022 01:14 15,9 C 95 % 1019,8 hPa 0,4 l/m 3,2 km/h (1 Bft) NW 315 0 min 0,000 mm 0,0 UV-I 0 W/m 15,1 C 15,9 C 6,4 km/h (2 Bft) 100,00 %
28.06.2022 01:13 15,9 C 95 % 1019,9 hPa 0,6 l/m 11,3 km/h (2 Bft) NW 315 0 min 0,000 mm 0,0 UV-I 0 W/m 15,1 C 15,9 C 22,5 km/h (4 Bft) 100,00 %
28.06.2022 01:12 15,9 C 95 % 1019,9 hPa 0,4 l/m 9,7 km/h (2 Bft) N 360 0 min 0,000 mm 0,0 UV-I 0 W/m 15,1 C 15,9 C 19,3 km/h (3 Bft) 100,00 %
28.06.2022 01:11 16,0 C 95 % 1020,1 hPa 0,0 l/m 14,5 km/h (3 Bft) N-NW 337 0 min 0,000 mm 0,0 UV-I 0 W/m 15,2 C 16,0 C 27,4 km/h (4 Bft) 100,00 %
28.06.2022 01:10 16,0 C 95 % 1019,8 hPa 0,2 l/m 11,3 km/h (2 Bft) W-NW 292 0 min 0,000 mm 0,0 UV-I 0 W/m 15,2 C 16,0 C 17,7 km/h (3 Bft) 91,30 %
28.06.2022 01:09 16,1 C 95 % 1019,8 hPa 0,0 l/m 16,1 km/h (3 Bft) N-NW 337 0 min 0,000 mm 0,0 UV-I 0 W/m 15,3 C 16,1 C 29,0 km/h (5 Bft) 95,65 %
28.06.2022 01:08 16,1 C 95 % 1019,9 hPa 0,0 l/m 14,5 km/h (3 Bft) N-NO 22 0 min 0,000 mm 0,0 UV-I 0 W/m 15,3 C 16,1 C 29,0 km/h (5 Bft) 86,96 %
28.06.2022 01:07 16,2 C 95 % 1020,0 hPa 0,0 l/m 11,3 km/h (2 Bft) N 360 0 min 0,000 mm 0,0 UV-I 0 W/m 15,4 C 16,2 C 22,5 km/h (4 Bft) 100,00 %
28.06.2022 01:06 16,2 C 95 % 1020,0 hPa 0,0 l/m 8,0 km/h (2 Bft) N-NW 337 0 min 0,000 mm 0,0 UV-I 0 W/m 15,4 C 16,2 C 16,1 km/h (3 Bft) 100,00 %
28.06.2022 01:05 16,2 C 95 % 1020,0 hPa 0,0 l/m 20,9 km/h (4 Bft) NW 315 0 min 0,000 mm 0,0 UV-I 0 W/m 15,4 C 16,2 C 33,8 km/h (5 Bft) 100,00 %
28.06.2022 01:04 16,2 C 95 % 1019,8 hPa 0,0 l/m 9,7 km/h (2 Bft) NW 315 0 min 0,000 mm 0,0 UV-I 0 W/m 15,4 C 16,2 C 17,7 km/h (3 Bft) 95,65 %
28.06.2022 01:03 16,2 C 95 % 1019,8 hPa 0,0 l/m 14,5 km/h (3 Bft) NW 315 0 min 0,000 mm 0,0 UV-I 0 W/m 15,4 C 16,2 C 24,1 km/h (4 Bft) 100,00 %
28.06.2022 01:02 16,3 C 95 % 1019,7 hPa 0,0 l/m 9,7 km/h (2 Bft) W-NW 292 0 min 0,000 mm 0,0 UV-I 0 W/m 15,5 C 16,3 C 14,5 km/h (3 Bft) 95,65 %
28.06.2022 01:01 16,3 C 95 % 1019,7 hPa 0,0 l/m 14,5 km/h (3 Bft) NW 315 0 min 0,000 mm 0,0 UV-I 0 W/m 15,5 C 16,3 C 19,3 km/h (3 Bft) 86,96 %
28.06.2022 01:00 16,3 C 95 % 1019,6 hPa 0,0 l/m 14,5 km/h (3 Bft) NW 315 0 min 0,000 mm 0,0 UV-I 0 W/m 15,5 C 16,3 C 19,3 km/h (3 Bft) 91,30 %
28.06.2022 00:59 16,3 C 95 % 1019,6 hPa 0,0 l/m 9,7 km/h (2 Bft) W 270 0 min 0,000 mm 0,0 UV-I 0 W/m 15,5 C 16,3 C 14,5 km/h (3 Bft) 91,30 %
28.06.2022 00:58 16,3 C 94 % 1019,6 hPa 0,0 l/m 14,5 km/h (3 Bft) NW 315 0 min 0,000 mm 0,0 UV-I 0 W/m 15,3 C 16,3 C 22,5 km/h (4 Bft) 73,91 %
28.06.2022 00:57 16,3 C 95 % 1019,5 hPa 0,0 l/m 19,3 km/h (3 Bft) NW 315 0 min 0,000 mm 0,0 UV-I 0 W/m 15,5 C 16,3 C 32,2 km/h (5 Bft) 95,65 %
28.06.2022 00:56 16,4 C 94 % 1019,4 hPa 0,0 l/m 12,9 km/h (3 Bft) W 270 0 min 0,000 mm 0,0 UV-I 0 W/m 15,4 C 16,4 C 17,7 km/h (3 Bft) 86,96 %
28.06.2022 00:55 16,4 C 94 % 1019,3 hPa 0,0 l/m 16,1 km/h (3 Bft) N-NW 337 0 min 0,000 mm 0,0 UV-I 0 W/m 15,4 C 16,4 C 25,7 km/h (4 Bft) 73,91 %
28.06.2022 00:54 16,5 C 94 % 1019,3 hPa 0,0 l/m 22,5 km/h (4 Bft) NW 315 0 min 0,000 mm 0,0 UV-I 0 W/m 15,5 C 16,5 C 40,2 km/h (6 Bft) 65,22 %
28.06.2022 00:53 16,6 C 94 % 1019,2 hPa 0,0 l/m 22,5 km/h (4 Bft) W-NW 292 0 min 0,000 mm 0,0 UV-I 0 W/m 15,6 C 16,6 C 35,4 km/h (5 Bft) 69,57 %
28.06.2022 00:52 16,6 C 94 % 1019,3 hPa 0,2 l/m 12,9 km/h (3 Bft) W-SW 247 0 min 0,000 mm 0,0 UV-I 0 W/m 15,6 C 16,6 C 20,9 km/h (4 Bft) 82,61 %
28.06.2022 00:51 16,7 C 93 % 1019,2 hPa 0,0 l/m 17,7 km/h (3 Bft) NW 315 0 min 0,000 mm 0,0 UV-I 0 W/m 15,6 C 16,7 C 22,5 km/h (4 Bft) 73,91 %
28.06.2022 00:50 16,8 C 93 % 1019,1 hPa 0,0 l/m 16,1 km/h (3 Bft) NW 315 0 min 0,000 mm 0,0 UV-I 0 W/m 15,7 C 16,8 C 19,3 km/h (3 Bft) 69,57 %
28.06.2022 00:49 16,8 C 93 % 1019,1 hPa 0,2 l/m 19,3 km/h (3 Bft) NW 315 0 min 0,000 mm 0,0 UV-I 0 W/m 15,7 C 16,8 C 30,6 km/h (5 Bft) 91,30 %
28.06.2022 00:48 16,9 C 93 % 1019,2 hPa 1,0 l/m 22,5 km/h (4 Bft) NW 315 0 min 0,000 mm 0,0 UV-I 0 W/m 15,8 C 16,9 C 30,6 km/h (5 Bft) 95,65 %
28.06.2022 00:47 16,9 C 92 % 1019,0 hPa 0,4 l/m 16,1 km/h (3 Bft) NW 315 0 min 0,000 mm 0,0 UV-I 0 W/m 15,6 C 16,9 C 22,5 km/h (4 Bft) 95,65 %
28.06.2022 00:46 17,1 C 92 % 1019,0 hPa 0,2 l/m 17,7 km/h (3 Bft) NW 315 0 min 0,000 mm 0,0 UV-I 0 W/m 15,8 C 17,1 C 24,1 km/h (4 Bft) 95,65 %
28.06.2022 00:45 17,0 C 92 % 1019,0 hPa 0,0 l/m 12,9 km/h (3 Bft) N-NW 337 0 min 0,000 mm 0,0 UV-I 0 W/m 15,7 C 17,0 C 20,9 km/h (4 Bft) 82,61 %
28.06.2022 00:44 17,1 C 92 % 1019,0 hPa 0,0 l/m 14,5 km/h (3 Bft) W 270 0 min 0,000 mm 0,0 UV-I 0 W/m 15,8 C 17,1 C 17,7 km/h (3 Bft) 91,30 %
28.06.2022 00:43 17,1 C 92 % 1019,0 hPa 0,0 l/m 16,1 km/h (3 Bft) W-NW 292 0 min 0,000 mm 0,0 UV-I 0 W/m 15,8 C 17,1 C 19,3 km/h (3 Bft) 65,22 %
28.06.2022 00:42 17,1 C 92 % 1018,9 hPa 0,0 l/m 14,5 km/h (3 Bft) NW 315 0 min 0,000 mm 0,0 UV-I 0 W/m 15,8 C 17,1 C 19,3 km/h (3 Bft) 86,96 %
28.06.2022 00:41 17,1 C 92 % 1018,9 hPa 0,0 l/m 12,9 km/h (3 Bft) N-NW 337 0 min 0,000 mm 0,0 UV-I 0 W/m 15,8 C 17,1 C 16,1 km/h (3 Bft) 82,61 %
28.06.2022 00:40 17,1 C 92 % 1018,8 hPa 0,0 l/m 12,9 km/h (3 Bft) W-SW 247 0 min 0,000 mm 0,0 UV-I 0 W/m 15,8 C 17,1 C 17,7 km/h (3 Bft) 100,00 %
28.06.2022 00:39 17,1 C 92 % 1018,8 hPa 0,0 l/m 12,9 km/h (3 Bft) W-NW 292 0 min 0,000 mm 0,0 UV-I 0 W/m 15,8 C 17,1 C 17,7 km/h (3 Bft) 82,61 %
28.06.2022 00:38 17,1 C 92 % 1018,8 hPa 0,0 l/m 11,3 km/h (2 Bft) W-NW 292 0 min 0,000 mm 0,0 UV-I 0 W/m 15,8 C 17,1 C 14,5 km/h (3 Bft) 82,61 %
28.06.2022 00:37 17,1 C 92 % 1018,9 hPa 0,0 l/m 14,5 km/h (3 Bft) W 270 0 min 0,000 mm 0,0 UV-I 0 W/m 15,8 C 17,1 C 22,5 km/h (4 Bft) 82,61 %
28.06.2022 00:36 17,2 C 92 % 1018,7 hPa 0,0 l/m 16,1 km/h (3 Bft) W-NW 292 0 min 0,000 mm 0,0 UV-I 0 W/m 15,9 C 17,2 C 20,9 km/h (4 Bft) 69,57 %
28.06.2022 00:35 17,2 C 91 % 1018,7 hPa 0,0 l/m 11,3 km/h (2 Bft) W-NW 292 0 min 0,000 mm 0,0 UV-I 0 W/m 15,7 C 17,2 C 19,3 km/h (3 Bft) 73,91 %
28.06.2022 00:34 17,2 C 91 % 1018,6 hPa 0,0 l/m 8,0 km/h (2 Bft) W 270 0 min 0,000 mm 0,0 UV-I 0 W/m 15,7 C 17,2 C 14,5 km/h (3 Bft) 82,61 %
28.06.2022 00:33 17,2 C 91 % 1018,5 hPa 0,0 l/m 11,3 km/h (2 Bft) W-NW 292 0 min 0,000 mm 0,0 UV-I 0 W/m 15,7 C 17,2 C 16,1 km/h (3 Bft) 95,65 %
28.06.2022 00:32 17,2 C 91 % 1018,3 hPa 0,0 l/m 8,0 km/h (2 Bft) W 270 0 min 0,000 mm 0,0 UV-I 0 W/m 15,7 C 17,2 C 14,5 km/h (3 Bft) 86,96 %
28.06.2022 00:31 17,2 C 91 % 1018,4 hPa 0,0 l/m 6,4 km/h (2 Bft) W-NW 292 0 min 0,000 mm 0,0 UV-I 0 W/m 15,7 C 17,2 C 14,5 km/h (3 Bft) 100,00 %
28.06.2022 00:30 17,2 C 91 % 1018,5 hPa 0,0 l/m 9,7 km/h (2 Bft) W-NW 292 0 min 0,000 mm 0,0 UV-I 0 W/m 15,7 C 17,2 C 14,5 km/h (3 Bft) 65,22 %
28.06.2022 00:29 17,2 C 91 % 1018,6 hPa 0,0 l/m 12,9 km/h (3 Bft) NW 315 0 min 0,000 mm 0,0 UV-I 0 W/m 15,7 C 17,2 C 16,1 km/h (3 Bft) 82,61 %
28.06.2022 00:28 17,2 C 90 % 1018,5 hPa 0,0 l/m 14,5 km/h (3 Bft) NW 315 0 min 0,000 mm 0,0 UV-I 0 W/m 15,5 C 17,2 C 16,1 km/h (3 Bft) 95,65 %
28.06.2022 00:27 17,2 C 91 % 1018,6 hPa 0,0 l/m 12,9 km/h (3 Bft) W-NW 292 0 min 0,000 mm 0,0 UV-I 0 W/m 15,7 C 17,2 C 20,9 km/h (4 Bft) 82,61 %
28.06.2022 00:26 17,2 C 91 % 1018,6 hPa 0,0 l/m 17,7 km/h (3 Bft) NW 315 0 min 0,000 mm 0,0 UV-I 0 W/m 15,7 C 17,2 C 24,1 km/h (4 Bft) 78,26 %
28.06.2022 00:25 17,2 C 91 % 1018,6 hPa 0,0 l/m 16,1 km/h (3 Bft) NW 315 0 min 0,000 mm 0,0 UV-I 0 W/m 15,7 C 17,2 C 20,9 km/h (4 Bft) 100,00 %
28.06.2022 00:24 17,2 C 91 % 1018,5 hPa 0,0 l/m 12,9 km/h (3 Bft) W-NW 292 0 min 0,000 mm 0,0 UV-I 0 W/m 15,7 C 17,2 C 17,7 km/h (3 Bft) 100,00 %
28.06.2022 00:23 17,2 C 91 % 1018,5 hPa 0,0 l/m 9,7 km/h (2 Bft) W 270 0 min 0,000 mm 0,0 UV-I 0 W/m 15,7 C 17,2 C 19,3 km/h (3 Bft) 100,00 %
28.06.2022 00:22 17,2 C 91 % 1018,5 hPa 0,0 l/m 9,7 km/h (2 Bft) NW 315 0 min 0,000 mm 0,0 UV-I 0 W/m 15,7 C 17,2 C 16,1 km/h (3 Bft) 91,30 %
28.06.2022 00:21 17,3 C 90 % 1018,7 hPa 0,0 l/m 17,7 km/h (3 Bft) NW 315 0 min 0,000 mm 0,0 UV-I 0 W/m 15,6 C 17,3 C 24,1 km/h (4 Bft) 100,00 %
28.06.2022 00:20 17,3 C 91 % 1018,6 hPa 0,0 l/m 17,7 km/h (3 Bft) W-NW 292 0 min 0,000 mm 0,0 UV-I 0 W/m 15,8 C 17,3 C 22,5 km/h (4 Bft) 82,61 %
28.06.2022 00:19 17,3 C 91 % 1018,7 hPa 0,0 l/m 16,1 km/h (3 Bft) W-NW 292 0 min 0,000 mm 0,0 UV-I 0 W/m 15,8 C 17,3 C 19,3 km/h (3 Bft) 86,96 %
28.06.2022 00:18 17,3 C 91 % 1018,7 hPa 0,0 l/m 17,7 km/h (3 Bft) NW 315 0 min 0,000 mm 0,0 UV-I 0 W/m 15,8 C 17,3 C 22,5 km/h (4 Bft) 82,61 %
28.06.2022 00:17 17,2 C 91 % 1018,8 hPa 0,0 l/m 9,7 km/h (2 Bft) NW 315 0 min 0,000 mm 0,0 UV-I 0 W/m 15,7 C 17,2 C 22,5 km/h (4 Bft) 91,30 %
28.06.2022 00:16 17,3 C 91 % 1018,9 hPa 0,0 l/m 16,1 km/h (3 Bft) W-NW 292 0 min 0,000 mm 0,0 UV-I 0 W/m 15,8 C 17,3 C 22,5 km/h (4 Bft) 95,65 %
28.06.2022 00:15 17,2 C 91 % 1018,8 hPa 0,0 l/m 9,7 km/h (2 Bft) W-NW 292 0 min 0,000 mm 0,0 UV-I 0 W/m 15,7 C 17,2 C 16,1 km/h (3 Bft) 95,65 %
28.06.2022 00:14 17,2 C 91 % 1018,7 hPa 0,0 l/m 8,0 km/h (2 Bft) N-NW 337 0 min 0,000 mm 0,0 UV-I 0 W/m 15,7 C 17,2 C 12,9 km/h (3 Bft) 95,65 %
28.06.2022 00:13 17,2 C 92 % 1018,8 hPa 0,0 l/m 9,7 km/h (2 Bft) NW 315 0 min 0,000 mm 0,0 UV-I 0 W/m 15,9 C 17,2 C 20,9 km/h (4 Bft) 100,00 %
28.06.2022 00:12 17,3 C 93 % 1018,8 hPa 0,0 l/m 8,0 km/h (2 Bft) N-NW 337 0 min 0,000 mm 0,0 UV-I 0 W/m 16,2 C 17,3 C 12,9 km/h (3 Bft) 100,00 %
28.06.2022 00:11 17,3 C 93 % 1018,7 hPa 0,0 l/m 14,5 km/h (3 Bft) NW 315 0 min 0,000 mm 0,0 UV-I 0 W/m 16,2 C 17,3 C 19,3 km/h (3 Bft) 100,00 %
28.06.2022 00:10 17,3 C 93 % 1018,6 hPa 0,0 l/m 11,3 km/h (2 Bft) N-NW 337 0 min 0,000 mm 0,0 UV-I 0 W/m 16,2 C 17,3 C 19,3 km/h (3 Bft) 100,00 %
28.06.2022 00:09 17,4 C 93 % 1018,6 hPa 0,0 l/m 11,3 km/h (2 Bft) NW 315 0 min 0,000 mm 0,0 UV-I 0 W/m 16,3 C 17,4 C 24,1 km/h (4 Bft) 100,00 %
28.06.2022 00:08 17,4 C 93 % 1018,5 hPa 0,0 l/m 6,4 km/h (2 Bft) NW 315 0 min 0,000 mm 0,0 UV-I 0 W/m 16,3 C 17,4 C 12,9 km/h (3 Bft) 100,00 %
28.06.2022 00:07 17,4 C 93 % 1018,5 hPa 0,0 l/m 4,8 km/h (1 Bft) W-NW 292 0 min 0,000 mm 0,0 UV-I 0 W/m 16,3 C 17,4 C 6,4 km/h (2 Bft) 95,65 %
28.06.2022 00:06 17,4 C 93 % 1018,6 hPa 0,0 l/m 9,7 km/h (2 Bft) W-NW 292 0 min 0,000 mm 0,0 UV-I 0 W/m 16,3 C 17,4 C 14,5 km/h (3 Bft) 95,65 %
28.06.2022 00:05 17,4 C 93 % 1018,5 hPa 0,0 l/m 14,5 km/h (3 Bft) NW 315 0 min 0,000 mm 0,0 UV-I 0 W/m 16,3 C 17,4 C 20,9 km/h (4 Bft) 100,00 %
28.06.2022 00:04 17,4 C 93 % 1018,5 hPa 0,0 l/m 11,3 km/h (2 Bft) W-NW 292 0 min 0,000 mm 0,0 UV-I 0 W/m 16,3 C 17,4 C 19,3 km/h (3 Bft) 91,30 %
28.06.2022 00:03 17,4 C 93 % 1018,6 hPa 0,0 l/m 11,3 km/h (2 Bft) W 270 0 min 0,000 mm 0,0 UV-I 0 W/m 16,3 C 17,4 C 17,7 km/h (3 Bft) 100,00 %
28.06.2022 00:02 17,4 C 93 % 1018,5 hPa 0,0 l/m 9,7 km/h (2 Bft) W 270 0 min 0,000 mm 0,0 UV-I 0 W/m 16,3 C 17,4 C 16,1 km/h (3 Bft) 100,00 %
28.06.2022 00:01 17,4 C 92 % 1018,5 hPa 0,0 l/m 11,3 km/h (2 Bft) N-NW 337 0 min 0,000 mm 0,0 UV-I 0 W/m 16,1 C 17,4 C 17,7 km/h (3 Bft) 95,65 %
28.06.2022 00:00 17,5 C 93 % 1018,6 hPa 0,0 l/m 16,1 km/h (3 Bft) W 270 0 min 0,000 mm 0,0 UV-I 0 W/m 16,4 C 17,5 C 20,9 km/h (4 Bft) 91,30 %
_ Min-Zeit 05:12 00:21 02:44 - 01:52 - - - - - - 03:19 05:12 01:57 10:23
Minimum _ 14,8 C 90 % 1017,2 hPa - 0,0 km/h (0 Bft) - - - - - - 14,2 C 14,8 C 0,0 km/h (0 Bft) 56,52 %
_ Max-Zeit 00:00 04:50 01:32 00:48 00:48 - - 07:07 09:00 08:25 08:18 00:00 00:00 00:54 00:02
Maximum _ 17,5 C 98 % 1020,7 hPa 1,0 l/m 22,5 km/h
NW (4 Bft)
- - 1 min 0,127 mm 1,9 UV-I 462 W/m 16,4 C 17,5 C 40,2 km/h
W-NW (6 Bft)
100,00 %
Durchschnitt _ 15,5 C 96 % 1019,3 hPa #5,8 l/m 7,1 km/h (2 Bft) W-SW - #1:58 h #0,330 mm 1,1 UV-I 128 W/m 14,9 C 15,5 C 10,5 km/h (2 Bft) 97,15 %